AFL594 VHHX-UUEE

Flight info

Callsign AFL594
Flight time 11h 56m
Altitude 27600
Route SIKOU/K0867S0840 A202 ASSAD/K0902F300 A202 VILAO/N0487F300 A202 RAMEI W42 MENEX DCT OBMOG M770 DABEN/N0487F310 DCT DAKID/N0488F320 W14 DAC W3 TEGAK/N0428F240 W3 BASEX W6 SDP/N0482F310 R598 PRO/K0898S0980 DCT OLGUT Y3 KUS DCT ZWTN/K0880S1040 DCT MAGIV W176 KHG L43 OGIGI/K0874F340 L43 DODOL L145 ARBOL L728 GEDSA L147 EKTOB M199 MULTA M162 PIMAM/K0863F360 M162 PODUT T750 MOF T173 BMK T750 OKSUD T787 OTKOL T784 LARNO T291 URIDU L158 DIMGI DIMGI3W
Aircraft B772/H-SDE2E3FGHIJ5LORVWXY/LB1D1

Departure

Time 2026-04-29 19:13
Airport Hong Kong International Airport Kai Tak (VHHX)

Arrival

Time 2026-04-30 07:09
Airport Sheremetyevo International Airport (UUEE)
Time Latitude Longitude Altitude Speed Heading
2026-04-29 18:26 22.32841 114.19806 49 ft 0 kts 134°
2026-04-29 19:03 22.32833 114.19816 42 ft 6 kts 134°
2026-04-29 19:03 22.32781 114.19871 41 ft 11 kts 137°
2026-04-29 19:03 22.32774 114.19875 41 ft 1 kts 157°
2026-04-29 19:03 22.32767 114.19874 41 ft 1 kts 180°
2026-04-29 19:04 22.32757 114.19867 41 ft 5 kts 220°
2026-04-29 19:04 22.32727 114.19834 41 ft 6 kts 224°
2026-04-29 19:04 22.32694 114.19800 41 ft 9 kts 224°
2026-04-29 19:04 22.32626 114.19729 41 ft 16 kts 223°
2026-04-29 19:05 22.32547 114.19647 41 ft 16 kts 224°
2026-04-29 19:05 22.32482 114.19579 41 ft 9 kts 224°
2026-04-29 19:05 22.32449 114.19550 41 ft 4 kts 203°
2026-04-29 19:05 22.32419 114.19557 41 ft 7 kts 153°
2026-04-29 19:06 22.32364 114.19603 41 ft 12 kts 138°
2026-04-29 19:06 22.32306 114.19663 41 ft 12 kts 136°
2026-04-29 19:06 22.32151 114.19832 41 ft 21 kts 134°
2026-04-29 19:07 22.32037 114.19961 41 ft 25 kts 134°
2026-04-29 19:07 22.31996 114.20007 40 ft 25 kts 134°
2026-04-29 19:07 22.31796 114.20233 41 ft 25 kts 134°
2026-04-29 19:07 22.31674 114.20369 41 ft 25 kts 134°
2026-04-29 19:08 22.31554 114.20502 41 ft 25 kts 134°
2026-04-29 19:08 22.31433 114.20637 41 ft 25 kts 134°
2026-04-29 19:08 22.31312 114.20773 41 ft 25 kts 134°
2026-04-29 19:08 22.31190 114.20908 41 ft 25 kts 134°
2026-04-29 19:09 22.31070 114.21044 41 ft 25 kts 134°
2026-04-29 19:09 22.30949 114.21180 41 ft 25 kts 133°
2026-04-29 19:09 22.30833 114.21321 38 ft 25 kts 133°
2026-04-29 19:09 22.30713 114.21457 41 ft 25 kts 133°
2026-04-29 19:10 22.30600 114.21582 39 ft 18 kts 134°
2026-04-29 19:10 22.30535 114.21655 41 ft 9 kts 133°
2026-04-29 19:10 22.30485 114.21691 41 ft 9 kts 175°
2026-04-29 19:10 22.30431 114.21659 41 ft 9 kts 225°
2026-04-29 19:11 22.30437 114.21598 41 ft 9 kts 307°
2026-04-29 19:11 22.30479 114.21548 41 ft 9 kts 314°
2026-04-29 19:11 22.30508 114.21515 41 ft 0 kts 314°
2026-04-29 19:12 22.30603 114.21408 41 ft 54 kts 314°
2026-04-29 19:12 22.31037 114.20925 41 ft 124 kts 314°
2026-04-29 19:12 22.31781 114.20089 43 ft 182 kts 315°
2026-04-29 19:12 22.32074 114.19754 85 ft 195 kts 314°
2026-04-29 19:13 22.33392 114.17850 1411 ft 202 kts 289°
2026-04-29 19:13 22.33266 114.16246 1781 ft 233 kts 245°
2026-04-29 19:13 22.32348 114.14737 1930 ft 244 kts 246°
2026-04-29 19:13 22.31778 114.13015 2076 ft 249 kts 258°
2026-04-29 19:14 22.31231 114.11210 2259 ft 263 kts 253°
2026-04-29 19:14 22.30548 114.09352 2622 ft 268 kts 252°
2026-04-29 19:14 22.29842 114.07497 3169 ft 264 kts 248°
2026-04-29 19:14 22.28840 114.05855 3527 ft 269 kts 221°
2026-04-29 19:15 22.27156 114.04997 3952 ft 271 kts 189°
2026-04-29 19:15 22.25909 114.04947 4284 ft 269 kts 180°
2026-04-29 19:15 22.24078 114.04706 4522 ft 266 kts 210°
2026-04-29 19:15 22.22555 114.03612 4706 ft 267 kts 217°
2026-04-29 19:16 22.20934 114.02625 4992 ft 270 kts 196°
2026-04-29 19:16 22.19081 114.02352 5341 ft 270 kts 187°
2026-04-29 19:16 22.17197 114.02156 5706 ft 273 kts 189°
2026-04-29 19:16 22.15331 114.01918 6148 ft 273 kts 190°
2026-04-29 19:17 22.13443 114.01661 6565 ft 274 kts 191°
2026-04-29 19:17 22.11542 114.01393 6939 ft 275 kts 191°
2026-04-29 19:17 22.09636 114.01117 7307 ft 277 kts 191°
2026-04-29 19:17 22.07719 114.00834 7642 ft 279 kts 191°
2026-04-29 19:18 22.05811 114.00550 8000 ft 280 kts 191°
2026-04-29 19:18 22.04509 114.00355 8257 ft 280 kts 191°
2026-04-29 19:18 22.01943 113.99970 8735 ft 281 kts 192°
2026-04-29 19:18 21.99989 113.99674 8918 ft 286 kts 191°
2026-04-29 19:19 21.98014 113.99376 8947 ft 286 kts 192°
2026-04-29 19:19 21.96050 113.99081 8978 ft 284 kts 192°
2026-04-29 19:19 21.94095 113.98786 8980 ft 283 kts 192°
2026-04-29 19:19 21.92147 113.98491 8983 ft 282 kts 192°
2026-04-29 19:20 21.90200 113.98197 8989 ft 282 kts 192°
2026-04-29 19:20 21.88283 113.97907 8983 ft 282 kts 192°
2026-04-29 19:20 21.86334 113.97612 8974 ft 282 kts 192°
2026-04-29 19:20 21.84390 113.97318 8971 ft 282 kts 192°
2026-04-29 19:21 21.82455 113.97027 8979 ft 281 kts 192°
2026-04-29 19:21 21.80515 113.96734 8985 ft 281 kts 192°
2026-04-29 19:21 21.78586 113.96443 9271 ft 281 kts 192°
2026-04-29 19:21 21.76632 113.96148 9555 ft 284 kts 192°
2026-04-29 19:22 21.74694 113.95855 9891 ft 285 kts 192°
2026-04-29 19:22 21.72714 113.95556 10112 ft 290 kts 192°
2026-04-29 19:22 21.70671 113.95246 10187 ft 301 kts 192°
2026-04-29 19:22 21.68555 113.94925 10263 ft 312 kts 192°
2026-04-29 19:23 21.66370 113.94594 10342 ft 323 kts 192°
2026-04-29 19:23 21.64102 113.94251 10437 ft 335 kts 192°
2026-04-29 19:23 21.61774 113.93900 10540 ft 348 kts 192°
2026-04-29 19:23 21.59335 113.93534 10777 ft 358 kts 192°
2026-04-29 19:24 21.56839 113.93159 10903 ft 364 kts 192°
2026-04-29 19:24 21.54335 113.92786 10936 ft 362 kts 192°
2026-04-29 19:24 21.51840 113.92414 10968 ft 361 kts 192°
2026-04-29 19:24 21.49381 113.92045 10971 ft 361 kts 192°
2026-04-29 19:25 21.46896 113.91672 10971 ft 361 kts 192°
2026-04-29 19:25 21.44410 113.91299 10966 ft 361 kts 192°
2026-04-29 19:25 21.41922 113.90925 10966 ft 360 kts 192°
2026-04-29 19:25 21.39435 113.90552 10969 ft 360 kts 192°
2026-04-29 19:26 21.36928 113.90203 11230 ft 366 kts 191°
2026-04-29 19:26 21.34391 113.89872 11786 ft 367 kts 191°
2026-04-29 19:26 21.31876 113.89550 12309 ft 370 kts 190°
2026-04-29 19:26 21.29291 113.89219 12721 ft 376 kts 191°
2026-04-29 19:27 21.26674 113.88882 13199 ft 381 kts 191°
2026-04-29 19:27 21.24023 113.88540 13685 ft 384 kts 191°
2026-04-29 19:27 21.21363 113.88196 14145 ft 387 kts 190°
2026-04-29 19:27 21.18715 113.87854 14595 ft 389 kts 190°
2026-04-29 19:28 21.16018 113.87504 15036 ft 391 kts 190°
2026-04-29 19:28 21.13311 113.87153 15477 ft 393 kts 190°
2026-04-29 19:28 21.10587 113.86800 15906 ft 396 kts 190°
2026-04-29 19:28 21.07836 113.86443 16320 ft 398 kts 190°
2026-04-29 19:29 21.05083 113.86086 16728 ft 400 kts 190°
2026-04-29 19:29 21.02342 113.85730 17130 ft 403 kts 190°
2026-04-29 19:29 20.99547 113.85368 17515 ft 405 kts 190°
2026-04-29 19:29 20.96741 113.85004 17909 ft 407 kts 190°
2026-04-29 19:30 20.93920 113.84639 18270 ft 410 kts 190°
2026-04-29 19:30 20.91078 113.84271 18590 ft 412 kts 190°
2026-04-29 19:30 20.88225 113.83902 18932 ft 413 kts 190°
2026-04-29 19:30 20.85364 113.83532 19267 ft 414 kts 190°
2026-04-29 19:31 20.82497 113.83162 19597 ft 416 kts 190°
2026-04-29 19:31 20.79651 113.82794 19911 ft 417 kts 190°
2026-04-29 19:31 20.76756 113.82420 20222 ft 419 kts 190°
2026-04-29 19:31 20.73852 113.82044 20527 ft 421 kts 190°
2026-04-29 19:32 20.70932 113.81668 20815 ft 423 kts 190°
2026-04-29 19:32 20.68012 113.81291 21148 ft 423 kts 190°
2026-04-29 19:32 20.65084 113.80913 21458 ft 424 kts 190°
2026-04-29 19:32 20.62148 113.80534 21741 ft 426 kts 190°
2026-04-29 19:33 20.59234 113.80158 22005 ft 428 kts 190°
2026-04-29 19:33 20.56271 113.79774 22284 ft 427 kts 191°
2026-04-29 19:33 20.53434 113.78961 22341 ft 422 kts 210°
2026-04-29 19:33 20.51062 113.77149 22491 ft 420 kts 227°
2026-04-29 19:34 20.49293 113.74685 22788 ft 418 kts 241°
2026-04-29 19:34 20.48148 113.71836 23061 ft 419 kts 253°
2026-04-29 19:34 20.47588 113.68776 23321 ft 422 kts 266°
2026-04-29 19:34 20.47851 113.65657 23459 ft 424 kts 279°
2026-04-29 19:35 20.48434 113.62598 23542 ft 429 kts 279°
2026-04-29 19:35 20.49030 113.59454 23729 ft 431 kts 279°
2026-04-29 19:35 20.49616 113.56317 23991 ft 431 kts 279°
2026-04-29 19:35 20.50190 113.53176 24240 ft 432 kts 278°
2026-04-29 19:36 20.50755 113.50027 24440 ft 433 kts 278°
2026-04-29 19:36 20.51314 113.46861 24626 ft 435 kts 278°
2026-04-29 19:36 20.51871 113.43675 24823 ft 437 kts 278°
2026-04-29 19:36 20.52419 113.40519 25008 ft 439 kts 278°
2026-04-29 19:37 20.52975 113.37307 25205 ft 440 kts 278°
2026-04-29 19:37 20.53343 113.35174 25336 ft 441 kts 278°
2026-04-29 19:37 20.54087 113.30863 25622 ft 443 kts 278°
2026-04-29 19:37 20.54646 113.27621 25827 ft 444 kts 278°
2026-04-29 19:38 20.55206 113.24369 26033 ft 446 kts 278°
2026-04-29 19:38 20.55759 113.21157 26226 ft 447 kts 278°
2026-04-29 19:38 20.56320 113.17890 26432 ft 448 kts 278°
2026-04-29 19:38 20.56884 113.14606 26627 ft 450 kts 278°
2026-04-29 19:39 20.57449 113.11312 26824 ft 451 kts 278°
2026-04-29 19:39 20.58014 113.08011 27001 ft 454 kts 278°
2026-04-29 19:39 20.58583 113.04686 27161 ft 456 kts 278°
2026-04-29 19:39 20.59153 113.01351 27339 ft 457 kts 278°
2026-04-29 19:40 20.59716 112.98054 27559 ft 458 kts 278°
2026-04-29 19:40 20.60287 112.94706 27754 ft 459 kts 278°
2026-04-29 19:40 20.60859 112.91348 27940 ft 461 kts 278°
2026-04-29 19:40 20.61432 112.87979 28120 ft 462 kts 278°
2026-04-29 19:41 20.62006 112.84600 28299 ft 463 kts 278°
2026-04-29 19:41 20.62582 112.81204 28481 ft 465 kts 278°
2026-04-29 19:41 20.63158 112.77803 28659 ft 466 kts 279°
2026-04-29 19:41 20.63735 112.74393 28831 ft 468 kts 279°
2026-04-29 19:42 20.64315 112.70967 28997 ft 469 kts 279°
2026-04-29 19:42 20.64697 112.68704 29098 ft 470 kts 279°
2026-04-29 19:42 20.65465 112.64150 29322 ft 471 kts 279°
2026-04-29 19:42 20.66046 112.60704 29477 ft 472 kts 279°
2026-04-29 19:43 20.66627 112.57250 29635 ft 473 kts 279°
2026-04-29 19:43 20.67208 112.53787 29769 ft 474 kts 279°
2026-04-29 19:43 20.67791 112.50310 29916 ft 475 kts 279°
2026-04-29 19:43 20.68374 112.46831 30050 ft 476 kts 279°
2026-04-29 19:44 20.68959 112.43341 30185 ft 477 kts 279°
2026-04-29 19:44 20.69541 112.39856 30337 ft 477 kts 279°
2026-04-29 19:44 20.70117 112.36407 30501 ft 476 kts 279°
2026-04-29 19:44 20.70696 112.32932 30708 ft 475 kts 279°
2026-04-29 19:45 20.71274 112.29459 30866 ft 474 kts 279°
2026-04-29 19:45 20.71851 112.25990 31013 ft 475 kts 279°
2026-04-29 19:45 20.72428 112.22514 31187 ft 474 kts 279°
2026-04-29 19:45 20.73004 112.19043 31384 ft 473 kts 279°
2026-04-29 19:46 20.73577 112.15586 31567 ft 473 kts 279°
2026-04-29 19:46 20.74148 112.12130 31736 ft 472 kts 279°
2026-04-29 19:46 20.74711 112.08724 31879 ft 472 kts 279°
2026-04-29 19:47 20.75852 112.01808 31973 ft 472 kts 279°
2026-04-29 19:47 20.76987 111.94903 31964 ft 471 kts 279°
2026-04-29 19:48 20.78116 111.88021 31976 ft 469 kts 279°
2026-04-29 19:48 20.79239 111.81161 31977 ft 468 kts 279°
2026-04-29 19:49 20.80358 111.74303 31988 ft 468 kts 278°
2026-04-29 19:49 20.81466 111.67492 31982 ft 468 kts 278°
2026-04-29 19:50 20.82579 111.60637 31983 ft 468 kts 278°
2026-04-29 19:50 20.83690 111.53780 31976 ft 468 kts 278°
2026-04-29 19:50 20.83994 111.50347 31963 ft 464 kts 266°
2026-04-29 19:51 20.83470 111.46951 31985 ft 462 kts 251°
2026-04-29 19:51 20.81180 111.40549 31987 ft 463 kts 250°
2026-04-29 19:52 20.78957 111.34069 31985 ft 467 kts 251°
2026-04-29 19:52 20.76771 111.27550 31984 ft 470 kts 251°
2026-04-29 19:53 20.74564 111.20959 31984 ft 472 kts 251°
2026-04-29 19:53 20.72345 111.14354 31982 ft 472 kts 251°
2026-04-29 19:54 20.69063 111.04614 31972 ft 462 kts 250°
2026-04-29 19:54 20.66885 110.98158 31982 ft 462 kts 250°
2026-04-29 19:55 20.64706 110.91709 31979 ft 462 kts 250°
2026-04-29 19:55 20.62528 110.85240 31988 ft 463 kts 251°
2026-04-29 19:56 20.60359 110.78769 31985 ft 463 kts 251°
2026-04-29 19:56 20.58180 110.72284 31992 ft 464 kts 250°
2026-04-29 19:57 20.56365 110.66890 31995 ft 465 kts 250°
2026-04-29 19:57 20.53823 110.59343 31994 ft 465 kts 250°
2026-04-29 19:58 20.51552 110.52866 31988 ft 466 kts 246°
2026-04-29 19:58 20.48377 110.46847 31993 ft 467 kts 237°
2026-04-29 19:59 20.44375 110.41365 31991 ft 468 kts 232°
2026-04-29 19:59 20.40227 110.36002 31998 ft 469 kts 232°
2026-04-29 20:00 20.36129 110.30647 31992 ft 469 kts 232°
2026-04-29 20:00 20.32017 110.25251 31994 ft 469 kts 232°
2026-04-29 20:01 20.27915 110.19852 31999 ft 469 kts 233°
2026-04-29 20:01 20.23839 110.14406 31992 ft 469 kts 233°
2026-04-29 20:02 20.19782 110.08980 31997 ft 469 kts 233°
2026-04-29 20:02 20.16401 110.04469 32001 ft 469 kts 233°
2026-04-29 20:03 20.11663 109.98161 32002 ft 468 kts 233°
2026-04-29 20:03 20.07593 109.92748 32001 ft 468 kts 233°
2026-04-29 20:04 20.03514 109.87329 32001 ft 468 kts 233°
2026-04-29 20:04 19.99469 109.81959 31997 ft 468 kts 233°
2026-04-29 20:05 19.95396 109.76557 32004 ft 468 kts 233°
2026-04-29 20:05 19.91317 109.71153 32003 ft 468 kts 233°
2026-04-29 20:06 19.87234 109.65748 32004 ft 468 kts 233°
2026-04-29 20:06 19.83155 109.60353 31999 ft 469 kts 233°
2026-04-29 20:07 19.79069 109.54953 32004 ft 469 kts 233°
2026-04-29 20:07 19.74984 109.49560 32006 ft 469 kts 233°
2026-04-29 20:08 19.71583 109.45074 32006 ft 469 kts 232°
2026-04-29 20:08 19.66821 109.38798 32003 ft 469 kts 232°
2026-04-29 20:09 19.62719 109.33396 32009 ft 470 kts 232°
2026-04-29 20:09 19.58620 109.28003 32008 ft 470 kts 232°
2026-04-29 20:10 19.54505 109.22592 32002 ft 471 kts 232°
2026-04-29 20:10 19.50410 109.17227 32008 ft 471 kts 232°
2026-04-29 20:11 19.46254 109.11859 32004 ft 471 kts 232°
2026-04-29 20:11 19.42087 109.06488 31995 ft 472 kts 232°
2026-04-29 20:12 19.37924 109.01118 32000 ft 472 kts 232°
2026-04-29 20:12 19.33748 108.95730 31997 ft 473 kts 232°
2026-04-29 20:13 19.30279 108.91258 31994 ft 473 kts 232°
2026-04-29 20:13 19.25417 108.84996 31994 ft 474 kts 232°
2026-04-29 20:14 19.21237 108.79605 31990 ft 474 kts 232°
2026-04-29 20:14 19.17053 108.74203 31985 ft 474 kts 232°
2026-04-29 20:15 19.13578 108.69721 31978 ft 474 kts 232°
2026-04-29 20:15 19.08719 108.63457 31979 ft 473 kts 232°
2026-04-29 20:16 19.04542 108.58080 31979 ft 473 kts 232°
2026-04-29 20:16 19.00358 108.52696 31976 ft 473 kts 232°
2026-04-29 20:17 18.96184 108.47332 31975 ft 473 kts 232°
2026-04-29 20:17 18.92031 108.41999 31975 ft 473 kts 232°
2026-04-29 20:18 18.87847 108.36631 31975 ft 473 kts 232°
2026-04-29 20:18 18.83650 108.31252 31963 ft 473 kts 233°
2026-04-29 20:19 18.79491 108.25924 31969 ft 474 kts 232°
2026-04-29 20:19 18.75295 108.20555 31968 ft 474 kts 232°
2026-04-29 20:20 18.71096 108.15187 31967 ft 474 kts 232°
2026-04-29 20:20 18.67602 108.10721 31966 ft 475 kts 232°
2026-04-29 20:21 18.63390 108.05345 31968 ft 474 kts 232°
2026-04-29 20:21 18.58503 107.99112 31966 ft 474 kts 232°
2026-04-29 20:22 18.54983 107.94626 31960 ft 474 kts 232°
2026-04-29 20:22 18.50804 107.89305 31962 ft 474 kts 232°
2026-04-29 20:23 18.46593 107.83946 31968 ft 475 kts 232°
2026-04-29 20:23 18.42372 107.78580 31968 ft 475 kts 232°
2026-04-29 20:24 18.38152 107.73218 31966 ft 476 kts 232°
2026-04-29 20:24 18.33967 107.67819 31970 ft 475 kts 236°
2026-04-29 20:25 18.30407 107.62024 31961 ft 474 kts 239°
2026-04-29 20:25 18.26900 107.56144 31957 ft 475 kts 239°
2026-04-29 20:26 18.23362 107.50274 31969 ft 475 kts 239°
2026-04-29 20:26 18.19810 107.44411 31971 ft 475 kts 239°
2026-04-29 20:27 18.16854 107.39537 31967 ft 475 kts 239°
2026-04-29 20:27 18.12721 107.32723 31972 ft 475 kts 239°
2026-04-29 20:28 18.09163 107.26862 31971 ft 475 kts 239°
2026-04-29 20:28 18.05605 107.21013 31972 ft 475 kts 239°
2026-04-29 20:29 18.02050 107.15198 31976 ft 475 kts 239°
2026-04-29 20:29 17.98477 107.09360 31977 ft 474 kts 239°
2026-04-29 20:30 17.94911 107.03532 31984 ft 474 kts 238°
2026-04-29 20:30 17.91365 106.97741 31981 ft 473 kts 238°
2026-04-29 20:31 17.87805 106.91931 31979 ft 473 kts 239°
2026-04-29 20:31 17.84270 106.86113 31979 ft 472 kts 239°
2026-04-29 20:32 17.80742 106.80291 31981 ft 472 kts 239°
2026-04-29 20:32 17.77219 106.74489 31986 ft 472 kts 239°
2026-04-29 20:33 17.73690 106.68685 31992 ft 471 kts 238°
2026-04-29 20:33 17.70184 106.62924 31979 ft 471 kts 238°
2026-04-29 20:34 17.66658 106.57140 31992 ft 471 kts 238°
2026-04-29 20:34 17.63117 106.51352 31996 ft 471 kts 238°
2026-04-29 20:35 17.59571 106.45562 32000 ft 472 kts 238°
2026-04-29 20:35 17.56025 106.39774 32009 ft 472 kts 239°
2026-04-29 20:36 17.52492 106.34009 32014 ft 473 kts 238°
2026-04-29 20:36 17.48925 106.28196 32007 ft 474 kts 238°
2026-04-29 20:37 17.45356 106.22380 32010 ft 474 kts 238°
2026-04-29 20:37 17.41789 106.16577 32001 ft 474 kts 238°
2026-04-29 20:38 17.38216 106.10767 32007 ft 474 kts 238°
2026-04-29 20:38 17.34655 106.04957 31994 ft 474 kts 239°
2026-04-29 20:39 17.31145 105.99158 31989 ft 475 kts 239°
2026-04-29 20:39 17.27602 105.93301 31985 ft 476 kts 239°
2026-04-29 20:40 17.24055 105.87454 31973 ft 476 kts 239°
2026-04-29 20:40 17.20503 105.81604 31970 ft 476 kts 239°
2026-04-29 20:41 17.16968 105.75789 31957 ft 477 kts 239°
2026-04-29 20:41 17.13403 105.69931 31957 ft 477 kts 239°
2026-04-29 20:42 17.09843 105.64085 31944 ft 477 kts 239°
2026-04-29 20:42 17.06282 105.58243 31944 ft 476 kts 239°
2026-04-29 20:43 17.02742 105.52439 31940 ft 476 kts 239°
2026-04-29 20:43 16.99182 105.46609 31938 ft 476 kts 239°
2026-04-29 20:44 16.95624 105.40784 31939 ft 475 kts 239°
2026-04-29 20:44 16.92063 105.34961 31930 ft 475 kts 239°
2026-04-29 20:45 16.88526 105.29181 31933 ft 475 kts 239°
2026-04-29 20:45 16.84965 105.23368 31928 ft 474 kts 239°
2026-04-29 20:46 16.81402 105.17573 31924 ft 474 kts 239°
2026-04-29 20:46 16.77863 105.11823 31927 ft 473 kts 239°
2026-04-29 20:47 16.74308 105.06050 31923 ft 472 kts 239°
2026-04-29 20:47 16.70758 105.00287 31932 ft 472 kts 239°
2026-04-29 20:48 16.67209 104.94530 31944 ft 472 kts 239°
2026-04-29 20:48 16.63674 104.88801 31928 ft 472 kts 239°
2026-04-29 20:49 16.60113 104.83033 31930 ft 472 kts 239°
2026-04-29 20:49 16.56527 104.77298 31930 ft 473 kts 237°
2026-04-29 20:50 16.52283 104.72038 31930 ft 475 kts 230°
2026-04-29 20:50 16.47832 104.66935 31921 ft 476 kts 230°
2026-04-29 20:51 16.43435 104.61836 31924 ft 476 kts 231°
2026-04-29 20:51 16.39022 104.56697 31937 ft 476 kts 231°
2026-04-29 20:52 16.34589 104.51538 31935 ft 477 kts 231°
2026-04-29 20:52 16.30164 104.46393 31921 ft 477 kts 231°
2026-04-29 20:53 16.25761 104.41285 31922 ft 477 kts 230°
2026-04-29 20:53 16.21288 104.36172 31938 ft 477 kts 230°
2026-04-29 20:54 16.14571 104.28514 31929 ft 477 kts 230°
2026-04-29 20:55 16.10104 104.23413 31922 ft 477 kts 230°
2026-04-29 20:55 16.05670 104.18354 31917 ft 476 kts 230°
2026-04-29 20:56 16.01276 104.13268 31932 ft 470 kts 231°
2026-04-29 20:56 15.96929 104.08180 31933 ft 469 kts 231°
2026-04-29 20:57 15.92596 104.03118 31919 ft 468 kts 231°
2026-04-29 20:57 15.88262 103.98067 31908 ft 469 kts 230°
2026-04-29 20:58 15.83914 103.93007 31937 ft 474 kts 230°
2026-04-29 20:58 15.79500 103.87875 31937 ft 478 kts 230°
2026-04-29 20:59 15.75059 103.82716 31934 ft 480 kts 230°
2026-04-29 20:59 15.70606 103.77548 31939 ft 480 kts 230°
2026-04-29 21:00 15.66189 103.72424 31939 ft 478 kts 230°
2026-04-29 21:00 15.61757 103.67285 31935 ft 477 kts 230°
2026-04-29 21:01 15.57338 103.62167 31937 ft 475 kts 230°
2026-04-29 21:01 15.52935 103.57069 31933 ft 474 kts 230°
2026-04-29 21:02 15.48554 103.51999 31927 ft 475 kts 230°
2026-04-29 21:02 15.44140 103.46896 31923 ft 475 kts 230°
2026-04-29 21:03 15.39711 103.41778 31931 ft 477 kts 230°
2026-04-29 21:03 15.35301 103.36687 31923 ft 478 kts 230°
2026-04-29 21:04 15.30853 103.31554 31920 ft 479 kts 230°
2026-04-29 21:04 15.26391 103.26409 31921 ft 480 kts 230°
2026-04-29 21:05 15.21923 103.21261 31915 ft 480 kts 230°
2026-04-29 21:05 15.17476 103.16141 31919 ft 480 kts 230°
2026-04-29 21:06 15.13004 103.10994 31911 ft 480 kts 230°
2026-04-29 21:06 15.08533 103.05852 31915 ft 480 kts 230°
2026-04-29 21:07 15.03739 103.01037 31905 ft 482 kts 220°
2026-04-29 21:07 14.98162 102.97167 31907 ft 484 kts 212°
2026-04-29 21:08 14.92371 102.93690 31908 ft 484 kts 213°
2026-04-29 21:08 14.86578 102.90132 31910 ft 484 kts 213°
2026-04-29 21:09 14.80772 102.86586 31910 ft 484 kts 212°
2026-04-29 21:09 14.74955 102.83059 31909 ft 484 kts 213°
2026-04-29 21:10 14.69187 102.79556 31908 ft 484 kts 213°
2026-04-29 21:10 14.63370 102.76023 31914 ft 484 kts 213°
2026-04-29 21:11 14.57540 102.72528 31905 ft 484 kts 212°
2026-04-29 21:11 14.51733 102.69072 31907 ft 484 kts 212°
2026-04-29 21:12 14.45897 102.65592 31914 ft 484 kts 212°
2026-04-29 21:12 14.40067 102.62113 31911 ft 484 kts 212°
2026-04-29 21:13 14.34221 102.58647 31914 ft 484 kts 212°
2026-04-29 21:13 14.28387 102.55244 31910 ft 485 kts 211°
2026-04-29 21:14 14.22521 102.51825 31913 ft 485 kts 211°
2026-04-29 21:14 14.16646 102.48395 31906 ft 485 kts 211°
2026-04-29 21:15 14.10766 102.44961 31908 ft 486 kts 211°
2026-04-29 21:15 14.04888 102.41530 31912 ft 486 kts 211°
2026-04-29 21:16 13.99001 102.38096 31904 ft 486 kts 211°
2026-04-29 21:16 13.93153 102.34687 31903 ft 486 kts 211°
2026-04-29 21:17 13.87272 102.31260 31892 ft 486 kts 211°
2026-04-29 21:17 13.81399 102.27800 31900 ft 486 kts 212°
2026-04-29 21:18 13.75525 102.24320 31888 ft 487 kts 212°
2026-04-29 21:18 13.69636 102.20865 31888 ft 487 kts 211°
2026-04-29 21:19 13.63764 102.17464 31891 ft 488 kts 211°
2026-04-29 21:19 13.57845 102.14036 31891 ft 488 kts 211°
2026-04-29 21:20 13.51925 102.10602 31881 ft 489 kts 211°
2026-04-29 21:20 13.45996 102.07163 31888 ft 489 kts 211°
2026-04-29 21:21 13.40093 102.03741 31885 ft 490 kts 211°
2026-04-29 21:21 13.34155 102.00301 31881 ft 490 kts 211°
2026-04-29 21:22 13.28199 101.96852 31888 ft 491 kts 211°
2026-04-29 21:22 13.22245 101.93407 31882 ft 491 kts 211°
2026-04-29 21:23 13.16332 101.89982 31880 ft 491 kts 210°
2026-04-29 21:23 13.10378 101.86531 31874 ft 491 kts 211°
2026-04-29 21:24 13.04426 101.83085 31872 ft 490 kts 211°
2026-04-29 21:24 12.98536 101.79637 31875 ft 490 kts 211°
2026-04-29 21:25 12.92609 101.76170 31869 ft 490 kts 211°
2026-04-29 21:25 12.86677 101.72715 31856 ft 490 kts 211°
2026-04-29 21:26 12.80801 101.69173 31854 ft 489 kts 217°
2026-04-29 21:26 12.75756 101.64534 31866 ft 486 kts 229°
2026-04-29 21:27 12.72371 101.59946 31865 ft 485 kts 236°
2026-04-29 21:27 12.67829 101.53379 31861 ft 486 kts 235°
2026-04-29 21:28 12.63868 101.47768 31857 ft 486 kts 234°
2026-04-29 21:28 12.60562 101.43107 31859 ft 486 kts 234°
2026-04-29 21:29 12.56587 101.37492 31859 ft 487 kts 235°
2026-04-29 21:29 12.52613 101.31873 31857 ft 487 kts 235°
2026-04-29 21:30 12.48641 101.26260 31852 ft 487 kts 234°
2026-04-29 21:30 12.44666 101.20647 31855 ft 487 kts 234°
2026-04-29 21:31 12.40713 101.15068 31858 ft 487 kts 234°
2026-04-29 21:31 12.36737 101.09459 31859 ft 486 kts 234°
2026-04-29 21:32 12.32760 101.03856 31859 ft 486 kts 234°
2026-04-29 21:32 12.28787 100.98263 31858 ft 486 kts 234°
2026-04-29 21:33 12.24835 100.92699 31863 ft 486 kts 234°
2026-04-29 21:33 12.20859 100.87106 31863 ft 486 kts 234°
2026-04-29 21:34 12.16884 100.81516 31857 ft 486 kts 235°
2026-04-29 21:34 12.12911 100.75932 31858 ft 486 kts 235°
2026-04-29 21:35 12.08929 100.70338 31857 ft 486 kts 235°
2026-04-29 21:35 12.04975 100.64788 31861 ft 486 kts 234°
2026-04-29 21:36 12.00927 100.59242 31862 ft 486 kts 232°
2026-04-29 21:36 11.96222 100.54277 31865 ft 487 kts 224°
2026-04-29 21:37 11.91223 100.49589 31861 ft 488 kts 224°
2026-04-29 21:37 11.86302 100.44880 31864 ft 488 kts 224°
2026-04-29 21:38 11.81348 100.40140 31858 ft 488 kts 224°
2026-04-29 21:38 11.76380 100.35409 31862 ft 488 kts 224°
2026-04-29 21:39 11.71439 100.30703 31861 ft 489 kts 224°
2026-04-29 21:39 11.66470 100.25968 31861 ft 489 kts 224°
2026-04-29 21:40 11.61497 100.21234 31861 ft 489 kts 224°
2026-04-29 21:40 11.56517 100.16494 31861 ft 489 kts 225°
2026-04-29 21:41 11.51540 100.11755 31861 ft 489 kts 225°
2026-04-29 21:41 11.46561 100.07018 31859 ft 489 kts 225°
2026-04-29 21:42 11.41618 100.02308 31859 ft 489 kts 225°
2026-04-29 21:42 11.36651 99.97574 31860 ft 488 kts 225°
2026-04-29 21:43 11.31686 99.92843 31862 ft 488 kts 225°
2026-04-29 21:43 11.26727 99.88120 31860 ft 488 kts 225°
2026-04-29 21:44 11.21797 99.83427 31857 ft 488 kts 225°
2026-04-29 21:44 11.17164 99.78459 31854 ft 479 kts 242°
2026-04-29 21:44 11.15895 99.75354 31865 ft 474 kts 259°
2026-04-29 21:45 11.15454 99.72040 31869 ft 472 kts 271°
2026-04-29 21:45 11.15731 99.68727 31861 ft 468 kts 283°
2026-04-29 21:45 11.16480 99.65490 31884 ft 470 kts 284°
2026-04-29 21:46 11.18077 99.59043 31874 ft 474 kts 285°
2026-04-29 21:46 11.19670 99.52485 31881 ft 478 kts 284°
2026-04-29 21:47 11.21218 99.45883 31877 ft 480 kts 284°
2026-04-29 21:47 11.22733 99.39315 31872 ft 479 kts 284°
2026-04-29 21:48 11.24249 99.32715 31875 ft 477 kts 284°
2026-04-29 21:48 11.25757 99.26154 31877 ft 475 kts 284°
2026-04-29 21:49 11.27259 99.19617 31876 ft 473 kts 284°
2026-04-29 21:49 11.28753 99.13112 31877 ft 471 kts 284°
2026-04-29 21:50 11.30241 99.06621 31883 ft 469 kts 284°
2026-04-29 21:50 11.31717 99.00184 31875 ft 469 kts 284°
2026-04-29 21:51 11.33195 98.93725 31866 ft 468 kts 284°
2026-04-29 21:51 11.35407 98.84045 31869 ft 467 kts 284°
2026-04-29 21:52 11.36882 98.77589 31867 ft 468 kts 284°
2026-04-29 21:52 11.38356 98.71126 31868 ft 468 kts 284°
2026-04-29 21:53 11.39820 98.64698 31867 ft 469 kts 284°
2026-04-29 21:53 11.41296 98.58213 31863 ft 469 kts 284°
2026-04-29 21:54 11.42770 98.51730 31863 ft 469 kts 284°
2026-04-29 21:54 11.44244 98.45237 31859 ft 470 kts 284°
2026-04-29 21:55 11.45706 98.38795 31861 ft 470 kts 284°
2026-04-29 21:55 11.47177 98.32302 31858 ft 470 kts 284°
2026-04-29 21:56 11.48648 98.25803 31864 ft 470 kts 284°
2026-04-29 21:56 11.50120 98.19292 31861 ft 471 kts 284°
2026-04-29 21:57 11.51580 98.12827 31856 ft 471 kts 284°
2026-04-29 21:57 11.53050 98.06313 31858 ft 471 kts 284°
2026-04-29 21:58 11.54518 97.99800 31857 ft 471 kts 284°
2026-04-29 21:58 11.55983 97.93292 31854 ft 471 kts 284°
2026-04-29 21:59 11.57447 97.86783 31856 ft 471 kts 284°
2026-04-29 21:59 11.58911 97.80266 31855 ft 471 kts 284°
2026-04-29 22:00 11.60364 97.73789 31860 ft 471 kts 284°
2026-04-29 22:00 11.61826 97.67269 31860 ft 471 kts 284°
2026-04-29 22:01 11.63286 97.60746 31857 ft 471 kts 284°
2026-04-29 22:01 11.64744 97.54228 31858 ft 471 kts 283°
2026-04-29 22:02 11.66200 97.47710 31857 ft 471 kts 283°
2026-04-29 22:02 11.67654 97.41193 31858 ft 471 kts 283°
2026-04-29 22:03 11.69098 97.34716 31857 ft 471 kts 283°
2026-04-29 22:03 11.70549 97.28196 31857 ft 471 kts 283°
2026-04-29 22:04 11.71999 97.21678 31857 ft 471 kts 283°
2026-04-29 22:04 11.73447 97.15162 31857 ft 470 kts 283°
2026-04-29 22:05 11.74882 97.08695 31858 ft 471 kts 283°
2026-04-29 22:06 11.77049 96.98913 31873 ft 473 kts 283°
2026-04-29 22:06 11.78506 96.92332 32117 ft 476 kts 283°
2026-04-29 22:06 11.79232 96.89045 32350 ft 474 kts 283°
2026-04-29 22:07 11.79956 96.85770 32597 ft 472 kts 283°
2026-04-29 22:07 11.80679 96.82496 32843 ft 471 kts 283°
2026-04-29 22:07 11.81397 96.79244 33068 ft 470 kts 283°
2026-04-29 22:07 11.82115 96.75986 33268 ft 470 kts 283°
2026-04-29 22:08 11.82832 96.72736 33459 ft 469 kts 283°
2026-04-29 22:08 11.83539 96.69527 33644 ft 469 kts 283°
2026-04-29 22:08 11.84253 96.66282 33774 ft 469 kts 283°
2026-04-29 22:09 11.85686 96.59768 33853 ft 470 kts 282°
2026-04-29 22:09 11.87116 96.53260 33859 ft 468 kts 282°
2026-04-29 22:10 11.88529 96.46825 33862 ft 467 kts 282°
2026-04-29 22:10 11.90462 96.40527 33852 ft 466 kts 296°
2026-04-29 22:11 11.94086 96.35048 33855 ft 467 kts 312°
2026-04-29 22:11 11.98700 96.30366 33863 ft 468 kts 313°
2026-04-29 22:12 12.03318 96.25724 33863 ft 469 kts 313°
2026-04-29 22:12 12.07950 96.21010 33864 ft 470 kts 313°
2026-04-29 22:13 12.12578 96.16264 33861 ft 472 kts 313°
2026-04-29 22:13 12.17209 96.11505 33862 ft 473 kts 313°
2026-04-29 22:14 12.21852 96.06733 33862 ft 473 kts 313°
2026-04-29 22:14 12.26470 96.01985 33859 ft 474 kts 313°
2026-04-29 22:15 12.31119 95.97204 33861 ft 474 kts 313°
2026-04-29 22:15 12.35766 95.92422 33863 ft 473 kts 312°
2026-04-29 22:16 12.40411 95.87639 33859 ft 473 kts 312°
2026-04-29 22:16 12.45023 95.82888 33860 ft 473 kts 312°
2026-04-29 22:17 12.49661 95.78107 33860 ft 473 kts 312°
2026-04-29 22:17 12.54290 95.73333 33860 ft 472 kts 312°
2026-04-29 22:18 12.58893 95.68583 33865 ft 472 kts 312°
2026-04-29 22:18 12.63514 95.63812 33859 ft 472 kts 312°
2026-04-29 22:19 12.68131 95.59042 33859 ft 471 kts 312°
2026-04-29 22:19 12.72748 95.54270 33869 ft 471 kts 312°
2026-04-29 22:20 12.77359 95.49501 33864 ft 471 kts 312°
2026-04-29 22:20 12.81935 95.44764 33863 ft 470 kts 312°
2026-04-29 22:21 12.86529 95.39993 33862 ft 469 kts 311°
2026-04-29 22:21 12.91067 95.35177 33862 ft 469 kts 311°
2026-04-29 22:22 12.95589 95.30349 33862 ft 469 kts 311°
2026-04-29 22:22 13.00122 95.25515 33862 ft 470 kts 311°
2026-04-29 22:23 13.04629 95.20717 33862 ft 470 kts 311°
2026-04-29 22:23 13.09170 95.15881 33869 ft 470 kts 311°
2026-04-29 22:24 13.13714 95.11040 33868 ft 471 kts 311°
2026-04-29 22:24 13.18257 95.06198 33865 ft 471 kts 311°
2026-04-29 22:25 13.22769 95.01385 33861 ft 471 kts 311°
2026-04-29 22:25 13.27316 94.96532 33863 ft 471 kts 311°
2026-04-29 22:26 13.31856 94.91683 33864 ft 471 kts 311°
2026-04-29 22:26 13.36393 94.86836 33867 ft 471 kts 311°
2026-04-29 22:27 13.40930 94.81985 33866 ft 470 kts 311°
2026-04-29 22:27 13.45433 94.77168 33866 ft 470 kts 311°
2026-04-29 22:28 13.49961 94.72320 33867 ft 470 kts 310°
2026-04-29 22:28 13.54487 94.67473 33860 ft 469 kts 310°
2026-04-29 22:29 13.58244 94.63447 33864 ft 469 kts 310°
2026-04-29 22:29 13.63495 94.57817 33862 ft 469 kts 310°
2026-04-29 22:30 13.68010 94.52972 33859 ft 469 kts 310°
2026-04-29 22:30 13.72526 94.48124 33870 ft 469 kts 310°
2026-04-29 22:31 13.76279 94.44092 33865 ft 469 kts 310°
2026-04-29 22:31 13.80793 94.39242 33868 ft 469 kts 310°
2026-04-29 22:32 13.85318 94.34376 33875 ft 470 kts 310°
2026-04-29 22:32 13.89814 94.29538 33866 ft 471 kts 310°
2026-04-29 22:33 13.94338 94.24667 33870 ft 471 kts 310°
2026-04-29 22:33 13.98868 94.19786 33865 ft 471 kts 310°
2026-04-29 22:34 14.03394 94.14908 33861 ft 471 kts 310°
2026-04-29 22:34 14.07924 94.10022 33863 ft 471 kts 310°
2026-04-29 22:35 14.12442 94.05145 33870 ft 471 kts 310°
2026-04-29 22:35 14.16935 94.00293 33861 ft 471 kts 310°
2026-04-29 22:36 14.21452 93.95413 33860 ft 470 kts 309°
2026-04-29 22:36 14.25970 93.90527 33871 ft 470 kts 309°
2026-04-29 22:37 14.30484 93.85642 33880 ft 470 kts 309°
2026-04-29 22:37 14.34967 93.80789 33859 ft 470 kts 309°
2026-04-29 22:38 14.39480 93.75900 33872 ft 470 kts 309°
2026-04-29 22:38 14.43997 93.71003 33868 ft 471 kts 309°
2026-04-29 22:39 14.48514 93.66104 33860 ft 471 kts 309°
2026-04-29 22:39 14.53040 93.61192 33857 ft 472 kts 309°
2026-04-29 22:40 14.57538 93.56306 33866 ft 472 kts 309°
2026-04-29 22:40 14.62066 93.51387 33863 ft 471 kts 309°
2026-04-29 22:41 14.66582 93.46476 33862 ft 470 kts 309°
2026-04-29 22:41 14.71081 93.41580 33863 ft 469 kts 309°
2026-04-29 22:42 14.75570 93.36692 33862 ft 469 kts 309°
2026-04-29 22:42 14.80025 93.31838 33860 ft 468 kts 309°
2026-04-29 22:43 14.84504 93.26955 33860 ft 467 kts 309°
2026-04-29 22:43 14.88974 93.22078 33860 ft 467 kts 309°
2026-04-29 22:44 14.93448 93.17195 33868 ft 467 kts 308°
2026-04-29 22:44 14.97917 93.12313 33860 ft 467 kts 308°
2026-04-29 22:45 15.02390 93.07423 33863 ft 467 kts 308°
2026-04-29 22:45 15.06834 93.02562 33859 ft 468 kts 308°
2026-04-29 22:46 15.11310 92.97663 33869 ft 469 kts 308°
2026-04-29 22:46 15.15794 92.92751 33864 ft 470 kts 308°
2026-04-29 22:47 15.20289 92.87825 33861 ft 471 kts 308°
2026-04-29 22:47 15.24790 92.82889 33861 ft 471 kts 308°
2026-04-29 22:48 15.29289 92.77951 33860 ft 472 kts 308°
2026-04-29 22:48 15.33769 92.73031 33860 ft 472 kts 308°
2026-04-29 22:49 15.38276 92.68078 33858 ft 472 kts 308°
2026-04-29 22:49 15.42779 92.63126 33859 ft 472 kts 308°
2026-04-29 22:50 15.47392 92.58248 33861 ft 474 kts 310°
2026-04-29 22:50 15.52073 92.53435 33857 ft 474 kts 310°
2026-04-29 22:51 15.56722 92.48633 33854 ft 474 kts 310°
2026-04-29 22:51 15.63703 92.41373 33869 ft 474 kts 310°
2026-04-29 22:52 15.68351 92.36528 33855 ft 473 kts 310°
2026-04-29 22:52 15.72964 92.31717 33853 ft 472 kts 309°
2026-04-29 22:53 15.77587 92.26894 33867 ft 470 kts 310°
2026-04-29 22:53 15.82183 92.22096 33849 ft 467 kts 310°
2026-04-29 22:54 15.86756 92.17319 33853 ft 465 kts 310°
2026-04-29 22:54 15.91304 92.12563 33853 ft 463 kts 310°
2026-04-29 22:55 15.95803 92.07855 33856 ft 462 kts 310°
2026-04-29 22:55 16.00328 92.03116 33862 ft 461 kts 309°
2026-04-29 22:56 16.04851 91.98379 33857 ft 461 kts 309°
2026-04-29 22:56 16.09371 91.93646 33854 ft 461 kts 309°
2026-04-29 22:57 16.13895 91.88905 33853 ft 462 kts 310°
2026-04-29 22:57 16.18394 91.84187 33857 ft 462 kts 310°
2026-04-29 22:58 16.22930 91.79426 33856 ft 463 kts 310°
2026-04-29 22:58 16.27477 91.74650 33856 ft 464 kts 310°
2026-04-29 22:59 16.32025 91.69869 33856 ft 465 kts 310°
2026-04-29 22:59 16.36541 91.65117 33863 ft 465 kts 310°
2026-04-29 23:00 16.41095 91.60324 33856 ft 464 kts 310°
2026-04-29 23:00 16.45639 91.55539 33857 ft 464 kts 310°
2026-04-29 23:01 16.50171 91.50763 33857 ft 463 kts 310°
2026-04-29 23:01 16.54676 91.46011 33858 ft 463 kts 310°
2026-04-29 23:02 16.59203 91.41232 33857 ft 463 kts 310°
2026-04-29 23:02 16.63727 91.36452 33855 ft 463 kts 310°
2026-04-29 23:03 16.68246 91.31675 33855 ft 463 kts 310°
2026-04-29 23:03 16.72777 91.26881 33852 ft 464 kts 311°
2026-04-29 23:04 16.77279 91.22115 33857 ft 465 kts 311°
2026-04-29 23:04 16.81827 91.17297 33856 ft 466 kts 311°
2026-04-29 23:05 16.86387 91.12463 33856 ft 468 kts 311°
2026-04-29 23:05 16.90956 91.07615 33854 ft 469 kts 311°
2026-04-29 23:06 16.95542 91.02746 33853 ft 470 kts 311°
2026-04-29 23:06 17.00105 90.97898 33853 ft 471 kts 311°
2026-04-29 23:07 17.04702 90.93010 33858 ft 471 kts 311°
2026-04-29 23:07 17.09303 90.88114 33851 ft 472 kts 311°
2026-04-29 23:08 17.13903 90.83216 33852 ft 472 kts 311°
2026-04-29 23:08 17.18495 90.78322 33852 ft 471 kts 311°
2026-04-29 23:09 17.23057 90.73455 33845 ft 472 kts 311°
2026-04-29 23:09 17.27653 90.68549 33854 ft 472 kts 311°
2026-04-29 23:10 17.32255 90.63632 33853 ft 473 kts 311°
2026-04-29 23:10 17.36841 90.58758 33842 ft 471 kts 315°
2026-04-29 23:11 17.39525 90.56774 33848 ft 478 kts 332°
2026-04-29 23:11 17.42687 90.55659 33857 ft 484 kts 347°
2026-04-29 23:11 17.46047 90.55344 33849 ft 490 kts
2026-04-29 23:11 17.49438 90.55798 33851 ft 491 kts
2026-04-29 23:12 17.56207 90.57035 33851 ft 496 kts
2026-04-29 23:12 17.63036 90.58266 33856 ft 499 kts
2026-04-29 23:13 17.69914 90.59440 33854 ft 501 kts
2026-04-29 23:13 17.76808 90.60584 33853 ft 499 kts
2026-04-29 23:14 17.83554 90.61700 33842 ft 491 kts
2026-04-29 23:14 17.90308 90.62819 33849 ft 491 kts
2026-04-29 23:15 17.97070 90.63942 33850 ft 492 kts
2026-04-29 23:15 18.03842 90.65069 33852 ft 493 kts
2026-04-29 23:16 18.10579 90.66191 33860 ft 493 kts
2026-04-29 23:16 18.17371 90.67324 33848 ft 494 kts
2026-04-29 23:17 18.24168 90.68457 33855 ft 494 kts
2026-04-29 23:17 18.30966 90.69592 33851 ft 494 kts
2026-04-29 23:18 18.37757 90.70727 33854 ft 494 kts
2026-04-29 23:18 18.44501 90.71855 33865 ft 494 kts
2026-04-29 23:19 18.51293 90.72991 33849 ft 494 kts
2026-04-29 23:19 18.58079 90.74128 33855 ft 493 kts
2026-04-29 23:20 18.64858 90.75264 33856 ft 493 kts
2026-04-29 23:20 18.71635 90.76401 33862 ft 492 kts
2026-04-29 23:21 18.78396 90.77537 33854 ft 491 kts
2026-04-29 23:21 18.85085 90.78661 33852 ft 488 kts
2026-04-29 23:22 18.91788 90.79788 33851 ft 486 kts
2026-04-29 23:22 18.98465 90.80911 33854 ft 485 kts
2026-04-29 23:23 19.05134 90.82034 33856 ft 484 kts
2026-04-29 23:23 19.11743 90.83148 33857 ft 484 kts
2026-04-29 23:24 19.18420 90.84273 33856 ft 487 kts
2026-04-29 23:24 19.25135 90.85407 33863 ft 490 kts
2026-04-29 23:25 19.31885 90.86547 33860 ft 493 kts
2026-04-29 23:25 19.38636 90.87689 33858 ft 495 kts
2026-04-29 23:26 19.45443 90.88841 33854 ft 496 kts
2026-04-29 23:26 19.52273 90.89998 33856 ft 497 kts
2026-04-29 23:27 19.59121 90.91160 33856 ft 498 kts
2026-04-29 23:27 19.65963 90.92321 33851 ft 498 kts
2026-04-29 23:28 19.72762 90.93476 33851 ft 497 kts
2026-04-29 23:28 19.79601 90.94639 33852 ft 497 kts
2026-04-29 23:29 19.86428 90.95800 33850 ft 496 kts
2026-04-29 23:29 19.93247 90.96962 33847 ft 496 kts
2026-04-29 23:30 20.00014 90.98115 33850 ft 495 kts
2026-04-29 23:30 20.06822 90.99276 33847 ft 495 kts
2026-04-29 23:31 20.13621 91.00437 33860 ft 495 kts
2026-04-29 23:31 20.20445 91.01603 33852 ft 497 kts
2026-04-29 23:32 20.27285 91.02772 33852 ft 498 kts
2026-04-29 23:32 20.34111 91.03941 33851 ft 500 kts
2026-04-29 23:33 20.39835 91.04921 33851 ft 502 kts
2026-04-29 23:33 20.46739 91.06105 33850 ft 503 kts
2026-04-29 23:34 20.53648 91.07291 33848 ft 504 kts
2026-04-29 23:34 20.60590 91.08484 33849 ft 505 kts
2026-04-29 23:35 20.67530 91.09677 33848 ft 505 kts
2026-04-29 23:35 20.74441 91.10867 33852 ft 506 kts
2026-04-29 23:36 20.81390 91.12064 33866 ft 505 kts
2026-04-29 23:36 20.88341 91.13262 33853 ft 506 kts
2026-04-29 23:37 20.95286 91.14461 33850 ft 505 kts
2026-04-29 23:37 21.02190 91.15654 33849 ft 505 kts
2026-04-29 23:38 21.09121 91.16853 33846 ft 504 kts
2026-04-29 23:38 21.16038 91.18050 33861 ft 503 kts
2026-04-29 23:39 21.22950 91.19247 33851 ft 503 kts
2026-04-29 23:39 21.29820 91.20438 33842 ft 502 kts
2026-04-29 23:40 21.36719 91.21635 33845 ft 502 kts
2026-04-29 23:40 21.43627 91.22835 33851 ft 502 kts
2026-04-29 23:41 21.50485 91.24028 33854 ft 503 kts
2026-04-29 23:41 21.57399 91.25231 33852 ft 503 kts
2026-04-29 23:42 21.64325 91.26438 33853 ft 503 kts
2026-04-29 23:42 21.71209 91.27639 33855 ft 504 kts
2026-04-29 23:43 21.78130 91.28847 33855 ft 504 kts
2026-04-29 23:43 21.85060 91.30058 33880 ft 504 kts
2026-04-29 23:44 21.91995 91.31271 33874 ft 505 kts
2026-04-29 23:44 21.98890 91.32479 33873 ft 504 kts
2026-04-29 23:45 22.05822 91.33694 33874 ft 504 kts
2026-04-29 23:45 22.12744 91.34908 33873 ft 504 kts
2026-04-29 23:46 22.19676 91.36126 33874 ft 504 kts
2026-04-29 23:46 22.26591 91.37279 33869 ft 500 kts
2026-04-29 23:47 22.30044 91.37162 33866 ft 495 kts 348°
2026-04-29 23:47 22.33328 91.36289 33877 ft 491 kts 338°
2026-04-29 23:47 22.36418 91.34765 33865 ft 485 kts 326°
2026-04-29 23:47 22.39282 91.32845 33877 ft 485 kts 325°
2026-04-29 23:48 22.45052 91.28997 33878 ft 488 kts 326°
2026-04-29 23:48 22.50897 91.25178 33885 ft 493 kts 326°
2026-04-29 23:49 22.56758 91.21381 33872 ft 496 kts 326°
2026-04-29 23:49 22.62704 91.17532 33870 ft 499 kts 326°
2026-04-29 23:50 22.68669 91.13665 33864 ft 500 kts 326°
2026-04-29 23:51 22.77572 91.07880 33865 ft 499 kts 326°
2026-04-29 23:51 22.83516 91.04013 33863 ft 498 kts 326°
2026-04-29 23:52 22.89453 91.00147 33866 ft 497 kts 326°
2026-04-29 23:52 22.95371 90.96289 33862 ft 495 kts 326°
2026-04-29 23:53 23.01274 90.92435 33865 ft 494 kts 326°
2026-04-29 23:53 23.07129 90.88610 33866 ft 494 kts 326°
2026-04-29 23:54 23.13042 90.84782 33876 ft 494 kts 327°
2026-04-29 23:54 23.19025 90.81071 33869 ft 495 kts 327°
2026-04-29 23:55 23.24982 90.77388 33872 ft 496 kts 327°
2026-04-29 23:55 23.30975 90.73654 33865 ft 496 kts 327°
2026-04-29 23:56 23.36953 90.69915 33860 ft 495 kts 327°
2026-04-29 23:56 23.42916 90.66183 33874 ft 494 kts 327°
2026-04-29 23:57 23.48870 90.62453 33861 ft 494 kts 327°
2026-04-29 23:57 23.54779 90.58736 33860 ft 493 kts 326°
2026-04-29 23:58 23.60726 90.54988 33866 ft 493 kts 326°
2026-04-29 23:58 23.66678 90.51234 33872 ft 493 kts 326°
2026-04-29 23:59 23.72581 90.47508 33880 ft 494 kts 326°
2026-04-29 23:59 23.78519 90.43721 33889 ft 494 kts 324°
2026-04-30 00:00 23.83717 90.38928 33889 ft 488 kts 310°
2026-04-30 00:00 23.87813 90.33070 33888 ft 484 kts 301°
2026-04-30 00:01 23.91627 90.26980 33827 ft 486 kts 301°
2026-04-30 00:01 23.95486 90.20906 33826 ft 487 kts 302°
2026-04-30 00:02 23.99351 90.14871 33811 ft 488 kts 302°
2026-04-30 00:02 24.03247 90.08783 33804 ft 488 kts 302°
2026-04-30 00:03 24.07130 90.02703 33821 ft 487 kts 301°
2026-04-30 00:03 24.11010 89.96603 33806 ft 487 kts 301°
2026-04-30 00:04 24.14845 89.90560 33791 ft 486 kts 301°
2026-04-30 00:04 24.18695 89.84488 33784 ft 485 kts 301°
2026-04-30 00:05 24.22549 89.78430 33788 ft 483 kts 301°
2026-04-30 00:05 24.26402 89.72396 33787 ft 482 kts 301°
2026-04-30 00:06 24.30239 89.66376 33787 ft 481 kts 302°
2026-04-30 00:06 24.34906 89.61134 33791 ft 491 kts 320°
2026-04-30 00:07 24.40941 89.57528 33819 ft 497 kts 333°
2026-04-30 00:07 24.47324 89.54540 33789 ft 499 kts 333°
2026-04-30 00:08 24.53688 89.51509 33793 ft 499 kts 333°
2026-04-30 00:08 24.59997 89.48437 33793 ft 499 kts 333°
2026-04-30 00:09 24.66339 89.45329 33795 ft 499 kts 333°
2026-04-30 00:09 24.72691 89.42215 33799 ft 499 kts 333°
2026-04-30 00:10 24.79045 89.39100 33802 ft 500 kts 333°
2026-04-30 00:10 24.85401 89.35981 33803 ft 500 kts 333°
2026-04-30 00:11 24.91718 89.32877 33808 ft 500 kts 333°
2026-04-30 00:11 24.98073 89.29748 33808 ft 500 kts 333°
2026-04-30 00:12 25.04435 89.26610 33808 ft 501 kts 332°
2026-04-30 00:12 25.10768 89.23482 33825 ft 503 kts 332°
2026-04-30 00:13 25.17170 89.20317 33819 ft 505 kts 332°
2026-04-30 00:13 25.23594 89.17140 33816 ft 506 kts 332°
2026-04-30 00:14 25.30026 89.13960 33820 ft 507 kts 332°
2026-04-30 00:14 25.36485 89.10787 33820 ft 508 kts 332°
2026-04-30 00:15 25.42900 89.07630 33816 ft 507 kts 332°
2026-04-30 00:15 25.49341 89.04445 33819 ft 507 kts 332°
2026-04-30 00:16 25.55760 89.01236 33818 ft 506 kts 332°
2026-04-30 00:16 25.62180 88.98022 33818 ft 505 kts 332°
2026-04-30 00:17 25.68584 88.94819 33822 ft 504 kts 333°
2026-04-30 00:17 25.71879 88.93628 33816 ft 509 kts 348°
2026-04-30 00:17 25.75426 88.93528 33824 ft 515 kts
2026-04-30 00:17 25.78897 88.94558 33836 ft 518 kts 22°
2026-04-30 00:18 25.82069 88.96472 33818 ft 520 kts 38°
2026-04-30 00:18 25.87340 89.01929 33825 ft 520 kts 45°
2026-04-30 00:19 25.92584 89.07527 33833 ft 525 kts 44°
2026-04-30 00:19 25.97957 89.13070 33829 ft 528 kts 44°
2026-04-30 00:20 26.03348 89.18579 33833 ft 530 kts 43°
2026-04-30 00:20 26.08854 89.24053 33818 ft 531 kts 43°
2026-04-30 00:21 26.14426 89.29440 33820 ft 529 kts 41°
2026-04-30 00:21 26.20039 89.34736 33841 ft 528 kts 41°
2026-04-30 00:22 26.25580 89.40007 33827 ft 526 kts 41°
2026-04-30 00:22 26.31135 89.45320 33825 ft 525 kts 41°
2026-04-30 00:23 26.37067 89.50074 33835 ft 525 kts 30°
2026-04-30 00:23 26.43402 89.54219 33840 ft 531 kts 30°
2026-04-30 00:24 26.49747 89.58519 33819 ft 533 kts 31°
2026-04-30 00:24 26.56060 89.62838 33839 ft 531 kts 31°
2026-04-30 00:25 26.62326 89.67121 33843 ft 530 kts 31°
2026-04-30 00:25 26.68630 89.71380 33855 ft 526 kts 26°
2026-04-30 00:25 26.72035 89.72776 33871 ft 520 kts
2026-04-30 00:26 26.75620 89.73078 33904 ft 514 kts 353°
2026-04-30 00:26 26.79124 89.72466 33891 ft 507 kts 339°
2026-04-30 00:26 26.82415 89.71132 33892 ft 502 kts 333°
2026-04-30 00:27 26.88917 89.68202 33915 ft 505 kts 334°
2026-04-30 00:27 26.95422 89.65336 33915 ft 506 kts 334°
2026-04-30 00:28 27.02009 89.62515 33954 ft 507 kts 334°
2026-04-30 00:28 27.08607 89.59708 33950 ft 506 kts 334°
2026-04-30 00:29 27.15186 89.56895 34035 ft 506 kts 334°
2026-04-30 00:29 27.21757 89.54078 34080 ft 505 kts 335°
2026-04-30 00:30 27.28166 89.50926 34105 ft 497 kts 323°
2026-04-30 00:30 27.33492 89.46231 34182 ft 483 kts 309°
2026-04-30 00:31 27.37844 89.40533 34159 ft 479 kts 305°
2026-04-30 00:31 27.42150 89.34796 34157 ft 480 kts 306°
2026-04-30 00:31 27.44321 89.31930 34046 ft 480 kts 306°
2026-04-30 00:32 27.46496 89.29069 34040 ft 481 kts 306°
2026-04-30 00:32 27.50848 89.23362 34096 ft 480 kts 306°
2026-04-30 00:33 27.55187 89.17665 34059 ft 483 kts 306°
2026-04-30 00:33 27.59585 89.11896 34101 ft 486 kts 306°
2026-04-30 00:34 27.63990 89.06088 34078 ft 488 kts 306°
2026-04-30 00:34 27.68404 89.00268 34097 ft 488 kts 306°
2026-04-30 00:35 27.72802 88.94465 34113 ft 489 kts 306°
2026-04-30 00:35 27.77219 88.88633 34107 ft 488 kts 305°
2026-04-30 00:36 27.81618 88.82808 34092 ft 487 kts 305°
2026-04-30 00:36 27.86013 88.76987 34082 ft 486 kts 305°
2026-04-30 00:37 27.90362 88.71218 34088 ft 483 kts 305°
2026-04-30 00:37 27.94709 88.65435 34080 ft 481 kts 305°
2026-04-30 00:38 27.99043 88.59669 34067 ft 480 kts 305°
2026-04-30 00:38 28.03332 88.53952 34094 ft 479 kts 305°
2026-04-30 00:39 28.07639 88.48204 34063 ft 478 kts 306°
2026-04-30 00:39 28.11946 88.42448 34049 ft 479 kts 305°
2026-04-30 00:40 28.15533 88.37648 34052 ft 481 kts 305°
2026-04-30 00:40 28.19857 88.31856 34044 ft 483 kts 305°
2026-04-30 00:41 28.24203 88.26025 34040 ft 484 kts 305°
2026-04-30 00:41 28.28559 88.20173 34044 ft 486 kts 305°
2026-04-30 00:42 28.32918 88.14310 34033 ft 487 kts 305°
2026-04-30 00:42 28.36800 88.08109 34038 ft 477 kts 291°
2026-04-30 00:43 28.39059 88.01134 34047 ft 466 kts 277°
2026-04-30 00:43 28.40391 87.93967 34033 ft 466 kts 277°
2026-04-30 00:44 28.41738 87.86761 34031 ft 466 kts 277°
2026-04-30 00:44 28.43112 87.79572 34031 ft 465 kts 277°
2026-04-30 00:45 28.44496 87.72390 34031 ft 465 kts 277°
2026-04-30 00:45 28.45870 87.65251 34056 ft 465 kts 277°
2026-04-30 00:46 28.47246 87.58070 34049 ft 465 kts 277°
2026-04-30 00:46 28.48619 87.50880 34070 ft 465 kts 277°
2026-04-30 00:47 28.49987 87.43697 34076 ft 465 kts 277°
2026-04-30 00:47 28.51342 87.36554 34063 ft 464 kts 277°
2026-04-30 00:48 28.52702 87.29373 34076 ft 463 kts 277°
2026-04-30 00:48 28.54053 87.22213 34073 ft 463 kts 277°
2026-04-30 00:49 28.55400 87.15047 34071 ft 464 kts 277°
2026-04-30 00:49 28.56748 87.07858 34072 ft 465 kts 277°
2026-04-30 00:50 28.58085 87.00712 34066 ft 465 kts 277°
2026-04-30 00:50 28.59494 86.93514 34083 ft 468 kts 281°
2026-04-30 00:51 28.61819 86.86551 34076 ft 475 kts 291°
2026-04-30 00:51 28.64761 86.79789 34083 ft 476 kts 291°
2026-04-30 00:52 28.67699 86.73020 34086 ft 476 kts 291°
2026-04-30 00:52 28.70586 86.66287 34076 ft 476 kts 291°
2026-04-30 00:53 28.73476 86.59505 34098 ft 475 kts 291°
2026-04-30 00:53 28.76352 86.52738 34105 ft 473 kts 291°
2026-04-30 00:54 28.79199 86.46022 34114 ft 473 kts 291°
2026-04-30 00:54 28.82057 86.39280 34097 ft 472 kts 291°
2026-04-30 00:55 28.84909 86.32541 34119 ft 470 kts 291°
2026-04-30 00:55 28.89162 86.22462 34124 ft 469 kts 290°
2026-04-30 00:56 28.91973 86.15792 34149 ft 469 kts 290°
2026-04-30 00:56 28.94809 86.09045 34109 ft 472 kts 290°
2026-04-30 00:57 28.97643 86.02288 34105 ft 473 kts 290°
2026-04-30 00:57 29.00487 85.95501 34107 ft 474 kts 290°
2026-04-30 00:58 29.03333 85.88698 34100 ft 474 kts 290°
2026-04-30 00:58 29.06174 85.81895 34091 ft 474 kts 290°
2026-04-30 00:59 29.09010 85.75095 34084 ft 474 kts 290°
2026-04-30 00:59 29.11821 85.68340 34084 ft 473 kts 290°
2026-04-30 01:00 29.14640 85.61550 34073 ft 473 kts 290°
2026-04-30 01:00 29.17457 85.54755 34083 ft 472 kts 290°
2026-04-30 01:01 29.20275 85.47945 34079 ft 473 kts 290°
2026-04-30 01:01 29.23089 85.41137 34086 ft 473 kts 291°
2026-04-30 01:02 29.25885 85.34355 34077 ft 474 kts 291°
2026-04-30 01:02 29.28699 85.27521 34068 ft 474 kts 291°
2026-04-30 01:03 29.31509 85.20680 34057 ft 474 kts 291°
2026-04-30 01:03 29.34317 85.13834 34076 ft 475 kts 291°
2026-04-30 01:04 29.37129 85.06968 34067 ft 476 kts 291°
2026-04-30 01:04 29.39920 85.00133 34051 ft 477 kts 290°
2026-04-30 01:05 29.42723 84.93236 34050 ft 477 kts 290°
2026-04-30 01:05 29.45521 84.86334 34058 ft 476 kts 290°
2026-04-30 01:06 29.48319 84.79432 34056 ft 476 kts 290°
2026-04-30 01:06 29.51083 84.72591 34067 ft 474 kts 290°
2026-04-30 01:07 29.53855 84.65717 34072 ft 474 kts 290°
2026-04-30 01:07 29.56628 84.58831 34061 ft 477 kts 290°
2026-04-30 01:08 29.59415 84.51899 34071 ft 479 kts 290°
2026-04-30 01:08 29.62210 84.44936 34084 ft 481 kts 290°
2026-04-30 01:09 29.65014 84.37932 34073 ft 484 kts 290°
2026-04-30 01:09 29.67814 84.30925 34066 ft 486 kts 290°
2026-04-30 01:10 29.70637 84.23853 34089 ft 486 kts 289°
2026-04-30 01:10 29.73453 84.16788 34069 ft 485 kts 289°
2026-04-30 01:11 29.76252 84.09750 34063 ft 482 kts 289°
2026-04-30 01:11 29.79013 84.02797 34053 ft 479 kts 289°
2026-04-30 01:12 29.81767 83.95838 34063 ft 477 kts 289°
2026-04-30 01:12 29.84518 83.88876 34066 ft 477 kts 289°
2026-04-30 01:13 29.87262 83.81919 34050 ft 476 kts 289°
2026-04-30 01:13 29.89982 83.75012 34045 ft 476 kts 289°
2026-04-30 01:14 29.92724 83.68038 34054 ft 478 kts 289°
2026-04-30 01:14 29.95464 83.61049 34051 ft 478 kts 289°
2026-04-30 01:15 29.98205 83.54053 34061 ft 478 kts 289°
2026-04-30 01:15 30.00928 83.47088 34068 ft 479 kts 289°
2026-04-30 01:16 30.03664 83.40075 34052 ft 479 kts 289°
2026-04-30 01:16 30.06395 83.33060 34051 ft 479 kts 289°
2026-04-30 01:17 30.09104 83.26090 34049 ft 478 kts 289°
2026-04-30 01:17 30.11824 83.19076 34054 ft 478 kts 289°
2026-04-30 01:18 30.14539 83.12063 34066 ft 478 kts 289°
2026-04-30 01:18 30.17250 83.05047 34052 ft 478 kts 289°
2026-04-30 01:19 30.19938 82.98077 34066 ft 477 kts 289°
2026-04-30 01:19 30.22639 82.91058 34067 ft 477 kts 289°
2026-04-30 01:20 30.25340 82.84025 34161 ft 481 kts 289°
2026-04-30 01:20 30.26698 82.80483 34376 ft 480 kts 289°
2026-04-30 01:20 30.28049 82.76960 34689 ft 478 kts 289°
2026-04-30 01:21 30.29393 82.73454 35018 ft 474 kts 289°
2026-04-30 01:21 30.30707 82.70020 35323 ft 472 kts 290°
2026-04-30 01:21 30.32036 82.66546 35581 ft 470 kts 290°
2026-04-30 01:21 30.33356 82.63088 35826 ft 469 kts 290°
2026-04-30 01:22 30.34674 82.59629 35995 ft 469 kts 290°
2026-04-30 01:22 30.35993 82.56165 36031 ft 471 kts 290°
2026-04-30 01:22 30.38634 82.49222 36084 ft 469 kts 290°
2026-04-30 01:23 30.41234 82.42376 36085 ft 466 kts 290°
2026-04-30 01:23 30.43836 82.35510 36092 ft 464 kts 290°
2026-04-30 01:24 30.46426 82.28664 36108 ft 463 kts 290°
2026-04-30 01:24 30.49013 82.21807 36090 ft 464 kts 290°
2026-04-30 01:25 30.51584 82.14985 36096 ft 465 kts 290°
2026-04-30 01:25 30.54176 82.08097 36102 ft 465 kts 290°
2026-04-30 01:26 30.56762 82.01207 36105 ft 465 kts 290°
2026-04-30 01:26 30.59350 81.94297 36077 ft 467 kts 290°
2026-04-30 01:27 30.61932 81.87409 36138 ft 465 kts 290°
2026-04-30 01:27 30.64496 81.80526 36078 ft 469 kts 289°
2026-04-30 01:28 30.67084 81.73568 36096 ft 469 kts 289°
2026-04-30 01:28 30.69671 81.66612 36106 ft 469 kts 289°
2026-04-30 01:29 30.72238 81.59693 36095 ft 468 kts 290°
2026-04-30 01:29 30.74803 81.52770 36091 ft 465 kts 290°
2026-04-30 01:30 30.77354 81.45868 36091 ft 462 kts 290°
2026-04-30 01:30 30.80570 81.39370 36092 ft 467 kts 303°
2026-04-30 01:31 30.84940 81.33802 36103 ft 472 kts 313°
2026-04-30 01:31 30.89843 81.28704 36103 ft 473 kts 314°
2026-04-30 01:32 30.94763 81.23602 36105 ft 473 kts 314°
2026-04-30 01:32 30.99655 81.18465 36096 ft 473 kts 314°
2026-04-30 01:33 31.04505 81.13336 36107 ft 474 kts 314°
2026-04-30 01:33 31.09388 81.08157 36110 ft 474 kts 314°
2026-04-30 01:34 31.14280 81.02964 36112 ft 475 kts 314°
2026-04-30 01:34 31.19174 80.97763 36105 ft 476 kts 313°
2026-04-30 01:35 31.24043 80.92580 36123 ft 476 kts 314°
2026-04-30 01:35 31.28942 80.87369 36089 ft 474 kts 314°
2026-04-30 01:36 31.33801 80.82182 36116 ft 473 kts 314°
2026-04-30 01:36 31.38657 80.76979 36108 ft 473 kts 314°
2026-04-30 01:37 31.43486 80.71811 36114 ft 473 kts 314°
2026-04-30 01:37 31.48347 80.66602 36124 ft 474 kts 314°
2026-04-30 01:38 31.53211 80.61378 36110 ft 474 kts 314°
2026-04-30 01:38 31.58072 80.56152 36119 ft 474 kts 314°
2026-04-30 01:39 31.62899 80.50955 36105 ft 474 kts 314°
2026-04-30 01:39 31.67745 80.45730 36114 ft 473 kts 314°
2026-04-30 01:40 31.72583 80.40502 36116 ft 473 kts 314°
2026-04-30 01:40 31.77434 80.35254 36104 ft 474 kts 314°
2026-04-30 01:41 31.81471 80.30883 36101 ft 475 kts 314°
2026-04-30 01:41 31.86333 80.25608 36101 ft 475 kts 314°
2026-04-30 01:42 31.91198 80.20323 36109 ft 476 kts 314°
2026-04-30 01:42 31.96199 80.15214 36099 ft 477 kts 326°
2026-04-30 01:43 31.99130 80.13481 36103 ft 480 kts 337°
2026-04-30 01:43 32.02354 80.12427 36094 ft 483 kts 348°
2026-04-30 01:43 32.09061 80.11992 36084 ft 482 kts 355°
2026-04-30 01:44 32.15756 80.11769 36076 ft 480 kts 355°
2026-04-30 01:44 32.22398 80.11494 36073 ft 480 kts 355°
2026-04-30 01:45 32.29071 80.11173 36068 ft 480 kts 355°
2026-04-30 01:45 32.35759 80.10837 36046 ft 481 kts 355°
2026-04-30 01:46 32.42459 80.10500 36048 ft 482 kts 355°
2026-04-30 01:46 32.49166 80.10165 36043 ft 482 kts 355°
2026-04-30 01:47 32.55878 80.09829 36052 ft 483 kts 355°
2026-04-30 01:47 32.62550 80.09495 36051 ft 483 kts 355°
2026-04-30 01:48 32.69288 80.09156 36054 ft 484 kts 355°
2026-04-30 01:48 32.76022 80.08817 36046 ft 485 kts 355°
2026-04-30 01:49 32.82763 80.08483 36064 ft 485 kts 355°
2026-04-30 01:49 32.89510 80.08144 36036 ft 484 kts 355°
2026-04-30 01:50 32.96239 80.07804 36045 ft 483 kts 355°
2026-04-30 01:50 33.02910 80.07466 36043 ft 483 kts 355°
2026-04-30 01:51 33.09650 80.07123 36020 ft 484 kts 355°
2026-04-30 01:51 33.16377 80.06786 36011 ft 483 kts 355°
2026-04-30 01:52 33.23100 80.06444 35985 ft 483 kts 355°
2026-04-30 01:52 33.29808 80.06103 35987 ft 482 kts 355°
2026-04-30 01:53 33.36508 80.05762 35983 ft 481 kts 355°
2026-04-30 01:53 33.43158 80.05425 35975 ft 481 kts 355°
2026-04-30 01:54 33.49857 80.05083 35987 ft 482 kts 355°
2026-04-30 01:54 33.56570 80.04741 35993 ft 482 kts 355°
2026-04-30 01:55 33.63240 80.04397 36005 ft 483 kts 355°
2026-04-30 01:55 33.69953 80.04047 35985 ft 482 kts 355°
2026-04-30 01:56 33.76658 80.03707 36017 ft 483 kts 355°
2026-04-30 01:56 33.83373 80.03365 36058 ft 483 kts 355°
2026-04-30 01:57 33.90042 80.03027 36038 ft 482 kts 355°
2026-04-30 01:57 33.96721 80.02683 36068 ft 479 kts 355°
2026-04-30 01:58 34.03384 80.02329 36095 ft 479 kts 355°
2026-04-30 01:58 34.10053 80.01981 36094 ft 479 kts 356°
2026-04-30 01:59 34.20014 80.01470 36111 ft 479 kts 356°
2026-04-30 02:00 34.26682 80.01122 36126 ft 478 kts 356°
2026-04-30 02:00 34.33324 80.00780 36149 ft 478 kts 355°
2026-04-30 02:01 34.39992 80.00429 36138 ft 480 kts 356°
2026-04-30 02:01 34.46677 80.00080 36149 ft 482 kts 356°
2026-04-30 02:02 34.53353 79.99732 36152 ft 483 kts 355°
2026-04-30 02:02 34.60088 79.99379 36156 ft 485 kts 355°
2026-04-30 02:03 34.66839 79.99025 36151 ft 486 kts 355°
2026-04-30 02:03 34.73561 79.98673 36146 ft 486 kts 355°
2026-04-30 02:04 34.80312 79.98318 36145 ft 485 kts 355°
2026-04-30 02:04 34.87057 79.97962 36145 ft 485 kts 355°
2026-04-30 02:05 34.93799 79.97606 36138 ft 484 kts 355°
2026-04-30 02:05 35.00533 79.97249 36139 ft 484 kts 355°
2026-04-30 02:06 35.07215 79.96896 36137 ft 483 kts 355°
2026-04-30 02:06 35.13936 79.96540 36143 ft 483 kts 355°
2026-04-30 02:07 35.20657 79.96182 36141 ft 482 kts 355°
2026-04-30 02:07 35.27365 79.95825 36159 ft 482 kts 355°
2026-04-30 02:08 35.34070 79.95468 36177 ft 482 kts 355°
2026-04-30 02:08 35.40723 79.95112 36170 ft 482 kts 355°
2026-04-30 02:09 35.47423 79.94754 36200 ft 481 kts 355°
2026-04-30 02:09 35.54121 79.94395 36219 ft 481 kts 355°
2026-04-30 02:10 35.60817 79.94033 36225 ft 482 kts 355°
2026-04-30 02:10 35.67533 79.93673 36237 ft 483 kts 355°
2026-04-30 02:11 35.74219 79.93315 36225 ft 484 kts 355°
2026-04-30 02:11 35.80944 79.92954 36238 ft 483 kts 355°
2026-04-30 02:12 35.87660 79.92587 36216 ft 483 kts 355°
2026-04-30 02:12 35.94371 79.92223 36216 ft 482 kts 355°
2026-04-30 02:13 36.01072 79.91862 36213 ft 481 kts 355°
2026-04-30 02:13 36.07725 79.91501 36198 ft 481 kts 355°
2026-04-30 02:14 36.14427 79.91135 36156 ft 482 kts 355°
2026-04-30 02:14 36.21135 79.90769 36160 ft 482 kts 355°
2026-04-30 02:15 36.27844 79.90404 36118 ft 482 kts 355°
2026-04-30 02:15 36.34503 79.90039 36091 ft 482 kts 355°
2026-04-30 02:16 36.41206 79.89673 36087 ft 482 kts 355°
2026-04-30 02:16 36.47908 79.89304 36052 ft 482 kts 355°
2026-04-30 02:17 36.54569 79.88937 36014 ft 482 kts 355°
2026-04-30 02:17 36.61262 79.88573 36008 ft 482 kts 355°
2026-04-30 02:18 36.67981 79.88197 35990 ft 483 kts 355°
2026-04-30 02:18 36.74711 79.87826 35965 ft 484 kts 355°
2026-04-30 02:19 36.81400 79.87456 35949 ft 484 kts 354°
2026-04-30 02:19 36.88145 79.87082 35936 ft 485 kts 354°
2026-04-30 02:20 36.94883 79.86708 35919 ft 484 kts 354°
2026-04-30 02:20 37.01553 79.85936 35895 ft 475 kts 339°
2026-04-30 02:20 37.04545 79.84283 35920 ft 468 kts 325°
2026-04-30 02:21 37.07106 79.81822 35907 ft 462 kts 311°
2026-04-30 02:21 37.11185 79.75753 35894 ft 459 kts 307°
2026-04-30 02:22 37.15253 79.69551 35898 ft 461 kts 307°
2026-04-30 02:22 37.19373 79.63344 35889 ft 463 kts 307°
2026-04-30 02:23 37.23493 79.57177 35890 ft 465 kts 308°
2026-04-30 02:23 37.27658 79.50947 35895 ft 465 kts 308°
2026-04-30 02:24 37.31814 79.44717 35874 ft 464 kts 308°
2026-04-30 02:24 37.35951 79.38503 35871 ft 463 kts 308°
2026-04-30 02:25 37.40049 79.32334 35869 ft 461 kts 308°
2026-04-30 02:25 37.44155 79.26142 35864 ft 460 kts 308°
2026-04-30 02:26 37.48248 79.19957 35877 ft 459 kts 308°
2026-04-30 02:26 37.52332 79.13773 35872 ft 458 kts 308°
2026-04-30 02:27 37.56386 79.07625 35877 ft 458 kts 308°
2026-04-30 02:27 37.60462 79.01431 35873 ft 459 kts 308°
2026-04-30 02:28 37.64543 78.95217 35873 ft 460 kts 308°
2026-04-30 02:28 37.68598 78.89032 35880 ft 460 kts 308°
2026-04-30 02:29 37.72683 78.82788 35876 ft 461 kts 307°
2026-04-30 02:29 37.76772 78.76527 35878 ft 461 kts 307°
2026-04-30 02:30 37.80855 78.70264 35875 ft 461 kts 307°
2026-04-30 02:30 37.84912 78.64029 35871 ft 461 kts 307°
2026-04-30 02:31 37.88985 78.57755 35882 ft 461 kts 307°
2026-04-30 02:31 37.93059 78.51469 35872 ft 461 kts 307°
2026-04-30 02:32 37.97133 78.45172 35871 ft 461 kts 307°
2026-04-30 02:32 38.01166 78.38924 35871 ft 461 kts 307°
2026-04-30 02:33 38.05225 78.32625 35869 ft 461 kts 307°
2026-04-30 02:33 38.09279 78.26323 35882 ft 460 kts 307°
2026-04-30 02:34 38.13329 78.20012 35885 ft 461 kts 307°
2026-04-30 02:34 38.17348 78.13738 35879 ft 460 kts 307°
2026-04-30 02:35 38.21393 78.07412 35879 ft 460 kts 307°
2026-04-30 02:35 38.25428 78.01088 35882 ft 460 kts 307°
2026-04-30 02:36 38.29434 77.94799 35885 ft 460 kts 307°
2026-04-30 02:36 38.33468 77.88452 35891 ft 460 kts 307°
2026-04-30 02:37 38.37501 77.82095 35889 ft 461 kts 307°
2026-04-30 02:37 38.41504 77.75773 35894 ft 461 kts 307°
2026-04-30 02:38 38.45537 77.69389 35895 ft 462 kts 307°
2026-04-30 02:38 38.49567 77.62998 35908 ft 462 kts 307°
2026-04-30 02:39 38.53569 77.56640 35897 ft 462 kts 307°
2026-04-30 02:39 38.57599 77.50225 35908 ft 462 kts 307°
2026-04-30 02:40 38.61725 77.43913 35906 ft 462 kts 309°
2026-04-30 02:40 38.65916 77.37733 35910 ft 463 kts 309°
2026-04-30 02:41 38.70130 77.31491 35917 ft 463 kts 309°
2026-04-30 02:41 38.74317 77.25235 35917 ft 462 kts 309°
2026-04-30 02:42 38.78496 77.18960 35916 ft 462 kts 309°
2026-04-30 02:42 38.82644 77.12717 35918 ft 462 kts 309°
2026-04-30 02:43 38.86812 77.06433 35936 ft 462 kts 309°
2026-04-30 02:43 38.90976 77.00144 35929 ft 462 kts 309°
2026-04-30 02:44 38.94442 76.94900 35927 ft 462 kts 309°
2026-04-30 02:44 38.98601 76.88597 35927 ft 462 kts 309°
2026-04-30 02:45 39.02763 76.82275 35932 ft 462 kts 309°
2026-04-30 02:45 39.06887 76.75998 35947 ft 463 kts 309°
2026-04-30 02:46 39.11039 76.69667 35945 ft 463 kts 309°
2026-04-30 02:46 39.15195 76.63317 35947 ft 463 kts 309°
2026-04-30 02:47 39.19344 76.56963 35948 ft 463 kts 309°
2026-04-30 02:47 39.23462 76.50645 35948 ft 463 kts 309°
2026-04-30 02:48 39.27599 76.44286 35948 ft 462 kts 309°
2026-04-30 02:48 39.31729 76.37925 35946 ft 462 kts 309°
2026-04-30 02:49 39.35857 76.31553 35944 ft 462 kts 309°
2026-04-30 02:49 39.39979 76.25177 35960 ft 462 kts 309°
2026-04-30 02:50 39.44068 76.18840 35978 ft 461 kts 309°
2026-04-30 02:50 39.48180 76.12456 35967 ft 461 kts 309°
2026-04-30 02:51 39.52341 76.06141 35964 ft 459 kts 316°
2026-04-30 02:51 39.54894 76.03676 35973 ft 461 kts 330°
2026-04-30 02:51 39.57831 76.01978 35969 ft 464 kts 341°
2026-04-30 02:51 39.60992 76.01110 35965 ft 464 kts 352°
2026-04-30 02:52 39.64173 76.00680 35973 ft 466 kts 352°
2026-04-30 02:52 39.70645 75.99816 35974 ft 468 kts 352°
2026-04-30 02:53 39.77148 75.98877 35981 ft 470 kts 351°
2026-04-30 02:53 39.83666 75.97888 35994 ft 472 kts 351°
2026-04-30 02:54 39.90153 75.96891 36021 ft 472 kts 351°
2026-04-30 02:54 39.96689 75.95887 36021 ft 472 kts 351°
2026-04-30 02:55 40.03203 75.94885 36040 ft 470 kts 351°
2026-04-30 02:55 40.09694 75.93886 36063 ft 468 kts 351°
2026-04-30 02:56 40.16115 75.92896 36070 ft 467 kts 351°
2026-04-30 02:56 40.22564 75.91899 36103 ft 466 kts 351°
2026-04-30 02:57 40.29009 75.90900 36109 ft 466 kts 351°
2026-04-30 02:57 40.35452 75.89906 36122 ft 466 kts 351°
2026-04-30 02:58 40.41865 75.88917 36145 ft 466 kts 351°
2026-04-30 02:58 40.48320 75.87922 36167 ft 467 kts 351°
2026-04-30 02:59 40.54779 75.86923 36157 ft 467 kts 351°
2026-04-30 02:59 40.61232 75.85922 36153 ft 467 kts 351°
2026-04-30 03:00 40.67686 75.84919 36157 ft 467 kts 351°
2026-04-30 03:00 40.74091 75.83876 36146 ft 463 kts 346°
2026-04-30 03:00 40.77105 75.82500 36171 ft 458 kts 329°
2026-04-30 03:01 40.79648 75.80003 36176 ft 455 kts 314°
2026-04-30 03:01 40.81675 75.76813 36138 ft 455 kts 302°
2026-04-30 03:01 40.83107 75.73091 36159 ft 454 kts 291°
2026-04-30 03:02 40.85307 75.65233 36153 ft 458 kts 290°
2026-04-30 03:02 40.87494 75.57295 36137 ft 461 kts 290°
2026-04-30 03:03 40.89753 75.49329 36132 ft 463 kts 291°
2026-04-30 03:03 40.93178 75.37405 36122 ft 464 kts 290°
2026-04-30 03:04 40.95468 75.29416 36115 ft 464 kts 290°
2026-04-30 03:04 40.97744 75.21438 36124 ft 462 kts 290°
2026-04-30 03:05 41.00002 75.13496 36099 ft 460 kts 290°
2026-04-30 03:05 41.02235 75.05617 36100 ft 459 kts 290°
2026-04-30 03:06 41.04470 74.97706 36086 ft 458 kts 290°
2026-04-30 03:06 41.06699 74.89800 36093 ft 457 kts 290°
2026-04-30 03:07 41.08921 74.81896 36091 ft 457 kts 290°
2026-04-30 03:07 41.11126 74.74046 36079 ft 457 kts 290°
2026-04-30 03:08 41.13341 74.66134 36087 ft 457 kts 290°
2026-04-30 03:08 41.15553 74.58208 36085 ft 458 kts 290°
2026-04-30 03:09 41.17763 74.50263 36083 ft 459 kts 290°
2026-04-30 03:09 41.19972 74.42297 36083 ft 459 kts 290°
2026-04-30 03:10 41.22157 74.34389 36072 ft 459 kts 290°
2026-04-30 03:10 41.24353 74.26417 36091 ft 458 kts 290°
2026-04-30 03:11 41.26540 74.18459 36083 ft 458 kts 290°
2026-04-30 03:11 41.28724 74.10483 36067 ft 459 kts 289°
2026-04-30 03:12 41.30962 74.02527 36065 ft 459 kts 294°
2026-04-30 03:12 41.34006 73.95136 36062 ft 459 kts 303°
2026-04-30 03:13 41.37596 73.88108 36066 ft 458 kts 303°
2026-04-30 03:13 41.41178 73.81066 36059 ft 458 kts 303°
2026-04-30 03:14 41.44726 73.74018 36065 ft 458 kts 303°
2026-04-30 03:14 41.48238 73.67003 36069 ft 456 kts 303°
2026-04-30 03:15 41.51761 73.59948 36055 ft 456 kts 302°
2026-04-30 03:15 41.55277 73.52864 36079 ft 457 kts 302°
2026-04-30 03:16 41.58787 73.45813 36057 ft 459 kts 302°
2026-04-30 03:16 41.62329 73.38686 36062 ft 460 kts 302°
2026-04-30 03:17 41.65866 73.31535 36041 ft 461 kts 302°
2026-04-30 03:17 41.69394 73.24383 36039 ft 461 kts 302°
2026-04-30 03:18 41.72896 73.17267 36038 ft 460 kts 302°
2026-04-30 03:18 41.76419 73.10094 36037 ft 460 kts 302°
2026-04-30 03:19 41.79932 73.02927 36037 ft 460 kts 302°
2026-04-30 03:19 41.83439 72.95755 36034 ft 459 kts 302°
2026-04-30 03:20 41.86977 72.88689 36021 ft 460 kts 303°
2026-04-30 03:20 41.90620 72.81624 36035 ft 459 kts 303°
2026-04-30 03:21 41.94251 72.74550 36031 ft 460 kts 303°
2026-04-30 03:21 41.97869 72.67453 36043 ft 460 kts 303°
2026-04-30 03:22 42.01453 72.60396 36052 ft 460 kts 303°
2026-04-30 03:22 42.05061 72.53270 36057 ft 461 kts 302°
2026-04-30 03:23 42.08674 72.46115 36061 ft 462 kts 302°
2026-04-30 03:23 42.12264 72.38999 36059 ft 462 kts 302°
2026-04-30 03:24 42.15878 72.31814 36052 ft 462 kts 302°
2026-04-30 03:24 42.19483 72.24631 36055 ft 462 kts 302°
2026-04-30 03:25 42.23081 72.17444 36051 ft 462 kts 302°
2026-04-30 03:25 42.26649 72.10286 36037 ft 461 kts 302°
2026-04-30 03:26 42.30217 72.03091 36043 ft 461 kts 302°
2026-04-30 03:26 42.33780 71.95887 36038 ft 461 kts 302°
2026-04-30 03:27 42.37338 71.88672 36028 ft 461 kts 302°
2026-04-30 03:27 42.40899 71.81451 36032 ft 462 kts 302°
2026-04-30 03:28 42.44436 71.74251 36005 ft 463 kts 302°
2026-04-30 03:28 42.48003 71.66972 36018 ft 463 kts 302°
2026-04-30 03:29 42.51560 71.59696 35998 ft 463 kts 302°
2026-04-30 03:29 42.55121 71.52396 35992 ft 464 kts 301°
2026-04-30 03:30 42.59099 71.45536 35970 ft 467 kts 317°
2026-04-30 03:30 42.64570 71.40866 35968 ft 473 kts 336°
2026-04-30 03:31 42.70789 71.37861 35967 ft 475 kts 338°
2026-04-30 03:31 42.76998 71.34752 35969 ft 475 kts 336°
2026-04-30 03:32 42.83016 71.31070 35975 ft 473 kts 330°
2026-04-30 03:32 42.88844 71.27016 35979 ft 474 kts 331°
2026-04-30 03:33 42.94807 71.23134 35947 ft 475 kts 332°
2026-04-30 03:33 43.00789 71.19297 35946 ft 474 kts 332°
2026-04-30 03:34 43.06750 71.15435 35950 ft 474 kts 332°
2026-04-30 03:34 43.12671 71.11570 35944 ft 474 kts 332°
2026-04-30 03:35 43.18613 71.07679 35947 ft 473 kts 332°
2026-04-30 03:35 43.24549 71.03785 35951 ft 473 kts 332°
2026-04-30 03:36 43.30487 70.99882 35945 ft 473 kts 332°
2026-04-30 03:36 43.36429 70.95968 35950 ft 473 kts 332°
2026-04-30 03:37 43.42375 70.92042 35945 ft 474 kts 333°
2026-04-30 03:37 43.48254 70.88040 35944 ft 472 kts 327°
2026-04-30 03:38 43.50895 70.85382 35943 ft 470 kts 316°
2026-04-30 03:38 43.53179 70.82172 35957 ft 468 kts 308°
2026-04-30 03:38 43.56763 70.74720 35943 ft 467 kts 300°
2026-04-30 03:39 43.60117 70.67103 35951 ft 468 kts 300°
2026-04-30 03:39 43.63526 70.59435 35946 ft 469 kts 300°
2026-04-30 03:40 43.66962 70.51773 35948 ft 469 kts 300°
2026-04-30 03:40 43.70408 70.44098 35948 ft 470 kts 300°
2026-04-30 03:41 43.73852 70.36409 35946 ft 470 kts 300°
2026-04-30 03:41 43.77265 70.28764 35944 ft 470 kts 300°
2026-04-30 03:42 43.80695 70.21059 35945 ft 469 kts 300°
2026-04-30 03:42 43.84117 70.13352 35951 ft 469 kts 300°
2026-04-30 03:43 43.87533 70.05637 35944 ft 469 kts 300°
2026-04-30 03:43 43.90923 69.97960 35946 ft 469 kts 300°
2026-04-30 03:44 43.94328 69.90231 35945 ft 469 kts 300°
2026-04-30 03:44 43.97723 69.82500 35952 ft 469 kts 300°
2026-04-30 03:45 44.01119 69.74749 35940 ft 470 kts 300°
2026-04-30 03:45 44.04492 69.67029 35946 ft 470 kts 300°
2026-04-30 03:46 44.07880 69.59253 35949 ft 470 kts 300°
2026-04-30 03:46 44.11266 69.51462 35957 ft 470 kts 299°
2026-04-30 03:47 44.14079 69.44973 35947 ft 471 kts 299°
2026-04-30 03:47 44.18017 69.35863 35946 ft 472 kts 299°
2026-04-30 03:48 44.20828 69.29344 35941 ft 472 kts 299°
2026-04-30 03:48 44.24204 69.21493 35949 ft 472 kts 299°
2026-04-30 03:49 44.27579 69.13621 35947 ft 473 kts 299°
2026-04-30 03:49 44.30951 69.05738 35939 ft 473 kts 299°
2026-04-30 03:50 44.34318 68.97845 35942 ft 472 kts 299°
2026-04-30 03:50 44.38168 68.90400 35943 ft 474 kts 310°
2026-04-30 03:51 44.42906 68.84052 35944 ft 475 kts 317°
2026-04-30 03:51 44.47941 68.78017 35937 ft 476 kts 318°
2026-04-30 03:52 44.52965 68.71971 35935 ft 476 kts 317°
2026-04-30 03:52 44.57966 68.65884 35942 ft 476 kts 317°
2026-04-30 03:53 44.62956 68.59771 35938 ft 476 kts 317°
2026-04-30 03:53 44.67907 68.53685 35937 ft 476 kts 317°
2026-04-30 03:54 44.72889 68.47549 35941 ft 476 kts 317°
2026-04-30 03:54 44.77873 68.41397 35934 ft 476 kts 317°
2026-04-30 03:55 44.82815 68.35283 35935 ft 476 kts 317°
2026-04-30 03:55 44.87791 68.29111 35939 ft 476 kts 317°
2026-04-30 03:56 44.92759 68.22937 35939 ft 475 kts 317°
2026-04-30 03:56 44.97720 68.16756 35939 ft 475 kts 317°
2026-04-30 03:57 45.02637 68.10614 35939 ft 475 kts 317°
2026-04-30 03:57 45.07593 68.04409 35936 ft 475 kts 317°
2026-04-30 03:58 45.12533 67.98208 35940 ft 475 kts 317°
2026-04-30 03:58 45.17440 67.92034 35939 ft 474 kts 317°
2026-04-30 03:59 45.22370 67.85818 35941 ft 474 kts 317°
2026-04-30 03:59 45.27297 67.79589 35936 ft 474 kts 317°
2026-04-30 04:00 45.32217 67.73354 35938 ft 473 kts 317°
2026-04-30 04:00 45.37125 67.67119 35950 ft 473 kts 316°
2026-04-30 04:01 45.42004 67.60906 35926 ft 473 kts 316°
2026-04-30 04:01 45.46905 67.54650 35951 ft 473 kts 316°
2026-04-30 04:02 45.51805 67.48380 35947 ft 472 kts 316°
2026-04-30 04:02 45.56658 67.42154 35947 ft 472 kts 317°
2026-04-30 04:03 45.61538 67.35879 35932 ft 472 kts 317°
2026-04-30 04:03 45.66418 67.29589 35935 ft 472 kts 316°
2026-04-30 04:04 45.71292 67.23291 35944 ft 472 kts 316°
2026-04-30 04:04 45.76153 67.16994 35933 ft 471 kts 316°
2026-04-30 04:05 45.81010 67.10687 35943 ft 471 kts 316°
2026-04-30 04:05 45.85824 67.04420 35940 ft 470 kts 316°
2026-04-30 04:06 45.90668 66.98101 35938 ft 470 kts 316°
2026-04-30 04:06 45.95498 66.91781 35942 ft 469 kts 316°
2026-04-30 04:07 46.00309 66.85469 35935 ft 468 kts 316°
2026-04-30 04:08 46.07486 66.76030 35946 ft 467 kts 316°
2026-04-30 04:08 46.12279 66.69707 35941 ft 466 kts 316°
2026-04-30 04:09 46.17063 66.63379 35943 ft 466 kts 316°
2026-04-30 04:09 46.21808 66.57087 35950 ft 465 kts 316°
2026-04-30 04:10 46.26571 66.50757 35946 ft 465 kts 315°
2026-04-30 04:10 46.31336 66.44406 35950 ft 466 kts 316°
2026-04-30 04:11 46.36075 66.38076 35957 ft 466 kts 316°
2026-04-30 04:11 46.40843 66.31691 35967 ft 467 kts 315°
2026-04-30 04:12 46.45615 66.25284 35960 ft 467 kts 316°
2026-04-30 04:12 46.50351 66.18909 35960 ft 467 kts 316°
2026-04-30 04:13 46.55114 66.12482 35974 ft 467 kts 315°
2026-04-30 04:13 46.59874 66.06045 35972 ft 467 kts 315°
2026-04-30 04:14 46.64632 65.99592 35971 ft 466 kts 315°
2026-04-30 04:14 46.69343 65.93187 35972 ft 466 kts 315°
2026-04-30 04:15 46.74068 65.86724 35970 ft 465 kts 314°
2026-04-30 04:15 46.78479 65.79841 35983 ft 464 kts 310°
2026-04-30 04:16 46.82779 65.72891 35990 ft 464 kts 310°
2026-04-30 04:16 46.87120 65.65885 35988 ft 464 kts 310°
2026-04-30 04:17 46.91471 65.58881 35993 ft 464 kts 310°
2026-04-30 04:17 46.95817 65.51879 35992 ft 465 kts 310°
2026-04-30 04:18 47.00127 65.44911 35989 ft 465 kts 310°
2026-04-30 04:18 47.04466 65.37880 36010 ft 465 kts 310°
2026-04-30 04:19 47.08805 65.30829 36001 ft 465 kts 310°
2026-04-30 04:19 47.13107 65.23821 35998 ft 465 kts 309°
2026-04-30 04:20 47.17432 65.16757 35996 ft 464 kts 309°
2026-04-30 04:20 47.21745 65.09693 36011 ft 464 kts 309°
2026-04-30 04:21 47.26055 65.02617 36002 ft 464 kts 309°
2026-04-30 04:21 47.30364 64.95526 35998 ft 464 kts 309°
2026-04-30 04:22 47.34641 64.88477 36011 ft 464 kts 309°
2026-04-30 04:22 47.38944 64.81368 36012 ft 464 kts 309°
2026-04-30 04:23 47.43235 64.74254 36009 ft 464 kts 309°
2026-04-30 04:23 47.47525 64.67122 35995 ft 464 kts 308°
2026-04-30 04:24 47.51781 64.60029 36016 ft 464 kts 308°
2026-04-30 04:24 47.56061 64.52881 36009 ft 464 kts 308°
2026-04-30 04:25 47.60340 64.45713 36013 ft 464 kts 308°
2026-04-30 04:25 47.64618 64.38522 36016 ft 465 kts 308°
2026-04-30 04:26 47.68893 64.31318 36010 ft 465 kts 308°
2026-04-30 04:26 47.73152 64.24126 36019 ft 466 kts 307°
2026-04-30 04:27 47.77434 64.16873 36017 ft 467 kts 307°
2026-04-30 04:27 47.81722 64.09592 36015 ft 468 kts 307°
2026-04-30 04:28 47.86008 64.02294 36014 ft 468 kts 307°
2026-04-30 04:28 47.90292 63.94983 36021 ft 468 kts 307°
2026-04-30 04:29 47.94543 63.87701 36017 ft 468 kts 307°
2026-04-30 04:29 47.98818 63.80361 36014 ft 468 kts 307°
2026-04-30 04:30 48.03085 63.73016 36034 ft 468 kts 306°
2026-04-30 04:30 48.07318 63.65708 36018 ft 468 kts 306°
2026-04-30 04:31 48.11572 63.58344 36011 ft 467 kts 306°
2026-04-30 04:31 48.15819 63.50972 36013 ft 467 kts 306°
2026-04-30 04:32 48.20035 63.43634 36039 ft 467 kts 306°
2026-04-30 04:32 48.24288 63.36208 36023 ft 470 kts 306°
2026-04-30 04:33 48.28555 63.28736 36020 ft 473 kts 306°
2026-04-30 04:33 48.32843 63.21210 36018 ft 475 kts 306°
2026-04-30 04:34 48.37152 63.13626 36016 ft 477 kts 306°
2026-04-30 04:34 48.41460 63.06022 36018 ft 478 kts 306°
2026-04-30 04:35 48.45735 62.98454 36014 ft 477 kts 305°
2026-04-30 04:35 48.50025 62.90838 36011 ft 476 kts 305°
2026-04-30 04:36 48.54304 62.83220 36022 ft 475 kts 305°
2026-04-30 04:36 48.58565 62.75610 36014 ft 474 kts 305°
2026-04-30 04:37 48.62650 62.67834 36012 ft 469 kts 298°
2026-04-30 04:37 48.65732 62.59335 36017 ft 462 kts 291°
2026-04-30 04:38 48.68556 62.50608 36025 ft 462 kts 291°
2026-04-30 04:38 48.71396 62.41874 36010 ft 462 kts 291°
2026-04-30 04:39 48.74253 62.33134 36009 ft 463 kts 291°
2026-04-30 04:39 48.77114 62.24382 36009 ft 463 kts 291°
2026-04-30 04:40 48.79951 62.15673 36009 ft 464 kts 291°
2026-04-30 04:40 48.82807 62.06877 36018 ft 464 kts 290°
2026-04-30 04:41 48.85635 61.98133 36015 ft 464 kts 290°
2026-04-30 04:41 48.88475 61.89321 36017 ft 463 kts 290°
2026-04-30 04:42 48.91304 61.80510 36023 ft 465 kts 290°
2026-04-30 04:42 48.92725 61.76070 36140 ft 467 kts 290°
2026-04-30 04:42 48.94147 61.71620 36395 ft 466 kts 290°
2026-04-30 04:42 48.95564 61.67186 36763 ft 464 kts 290°
2026-04-30 04:43 48.96952 61.62837 37089 ft 462 kts 290°
2026-04-30 04:43 48.98355 61.58425 37322 ft 462 kts 290°
2026-04-30 04:43 48.99752 61.54025 37533 ft 463 kts 290°
2026-04-30 04:43 49.01152 61.49607 37768 ft 462 kts 290°
2026-04-30 04:44 49.02549 61.45190 37932 ft 463 kts 290°
2026-04-30 04:44 49.05348 61.36312 38005 ft 465 kts 290°
2026-04-30 04:45 49.08120 61.27502 38007 ft 461 kts 290°
2026-04-30 04:45 49.10884 61.18684 38011 ft 459 kts 289°
2026-04-30 04:46 49.13621 61.09915 38005 ft 456 kts 289°
2026-04-30 04:46 49.16321 61.01234 38007 ft 454 kts 289°
2026-04-30 04:47 49.19024 60.92511 38014 ft 454 kts 289°
2026-04-30 04:47 49.21711 60.83812 38055 ft 456 kts 289°
2026-04-30 04:48 49.24421 60.75013 38026 ft 458 kts 288°
2026-04-30 04:48 49.27134 60.66178 38023 ft 459 kts 288°
2026-04-30 04:49 49.29849 60.57312 38027 ft 460 kts 288°
2026-04-30 04:49 49.32543 60.48478 38019 ft 460 kts 288°
2026-04-30 04:50 49.35250 60.39575 38058 ft 460 kts 288°
2026-04-30 04:50 49.37950 60.30657 38049 ft 460 kts 288°
2026-04-30 04:51 49.40642 60.21734 38041 ft 461 kts 288°
2026-04-30 04:51 49.43332 60.12784 38029 ft 461 kts 288°
2026-04-30 04:52 49.46014 60.03830 38047 ft 461 kts 288°
2026-04-30 04:52 49.48689 59.94863 38063 ft 462 kts 287°
2026-04-30 04:53 49.51343 59.85936 38052 ft 461 kts 287°
2026-04-30 04:53 49.54002 59.76964 38046 ft 460 kts 287°
2026-04-30 04:54 49.56635 59.68001 38049 ft 459 kts 287°
2026-04-30 04:54 49.59250 59.59043 38056 ft 458 kts 287°
2026-04-30 04:55 49.61417 59.51594 38088 ft 458 kts 287°
2026-04-30 04:55 49.64020 59.42625 38063 ft 458 kts 287°
2026-04-30 04:56 49.66616 59.33648 38055 ft 458 kts 287°
2026-04-30 04:56 49.69208 59.24653 38068 ft 458 kts 287°
2026-04-30 04:57 49.71785 59.15688 38060 ft 459 kts 287°
2026-04-30 04:57 49.74385 59.06658 38071 ft 460 kts 287°
2026-04-30 04:58 49.76984 58.97611 38074 ft 460 kts 287°
2026-04-30 04:58 49.79573 58.88552 38073 ft 461 kts 286°
2026-04-30 04:59 49.82145 58.79519 38081 ft 461 kts 286°
2026-04-30 04:59 49.84726 58.70421 38079 ft 461 kts 286°
2026-04-30 05:00 49.87302 58.61301 38099 ft 461 kts 286°
2026-04-30 05:00 49.89852 58.52242 38092 ft 461 kts 286°
2026-04-30 05:01 49.92416 58.43096 38092 ft 462 kts 286°
2026-04-30 05:01 49.94974 58.33937 38083 ft 462 kts 286°
2026-04-30 05:02 49.97508 58.24830 38074 ft 462 kts 286°
2026-04-30 05:02 50.00049 58.15661 38086 ft 462 kts 285°
2026-04-30 05:03 50.02570 58.06481 38079 ft 461 kts 285°
2026-04-30 05:03 50.05074 57.97314 38080 ft 461 kts 285°
2026-04-30 05:04 50.07576 57.88127 38075 ft 461 kts 285°
2026-04-30 05:04 50.10053 57.78995 38072 ft 460 kts 285°
2026-04-30 05:05 50.12540 57.69793 38093 ft 461 kts 285°
2026-04-30 05:05 50.15025 57.60557 38089 ft 462 kts 285°
2026-04-30 05:06 50.18746 57.46664 38091 ft 463 kts 285°
2026-04-30 05:06 50.21212 57.37415 38097 ft 464 kts 285°
2026-04-30 05:07 50.23687 57.28092 38102 ft 465 kts 285°
2026-04-30 05:07 50.25068 57.23510 38082 ft 472 kts 296°
2026-04-30 05:07 50.27237 57.19564 38109 ft 489 kts 313°
2026-04-30 05:08 50.30103 57.16590 38106 ft 503 kts 330°
2026-04-30 05:08 50.33454 57.14865 38103 ft 510 kts 341°
2026-04-30 05:08 50.40337 57.12286 38104 ft 513 kts 341°
2026-04-30 05:09 50.47292 57.09609 38119 ft 515 kts 341°
2026-04-30 05:09 50.54244 57.06793 38109 ft 516 kts 340°
2026-04-30 05:10 50.61184 57.03925 38098 ft 516 kts 340°
2026-04-30 05:10 50.68071 57.01075 38110 ft 513 kts 340°
2026-04-30 05:11 50.74969 56.98218 38129 ft 511 kts 340°
2026-04-30 05:11 50.81855 56.95358 38121 ft 510 kts 340°
2026-04-30 05:12 50.88714 56.92501 38115 ft 509 kts 340°
2026-04-30 05:12 50.95516 56.89658 38156 ft 508 kts 340°
2026-04-30 05:13 51.02356 56.86779 38130 ft 506 kts 338°
2026-04-30 05:13 51.05614 56.84788 38116 ft 496 kts 326°
2026-04-30 05:13 51.08526 56.81940 38141 ft 488 kts 316°
2026-04-30 05:14 51.13267 56.74555 38152 ft 478 kts 302°
2026-04-30 05:14 51.17504 56.66310 38143 ft 484 kts 302°
2026-04-30 05:15 51.21804 56.58011 38143 ft 483 kts 303°
2026-04-30 05:15 51.26079 56.49864 38141 ft 476 kts 303°
2026-04-30 05:16 51.30302 56.41803 38148 ft 475 kts 302°
2026-04-30 05:16 51.34547 56.33668 38147 ft 476 kts 302°
2026-04-30 05:17 51.38787 56.25514 38151 ft 477 kts 302°
2026-04-30 05:17 51.43003 56.17382 38144 ft 477 kts 302°
2026-04-30 05:18 51.47244 56.09177 38149 ft 478 kts 302°
2026-04-30 05:18 51.51483 56.00952 38151 ft 478 kts 302°
2026-04-30 05:19 51.55695 55.92750 38153 ft 478 kts 302°
2026-04-30 05:19 51.59927 55.84486 38156 ft 478 kts 302°
2026-04-30 05:20 51.64154 55.76203 38155 ft 479 kts 302°
2026-04-30 05:20 51.68379 55.67895 38176 ft 479 kts 302°
2026-04-30 05:21 51.72567 55.59636 38161 ft 478 kts 302°
2026-04-30 05:21 51.76763 55.51334 38156 ft 477 kts 302°
2026-04-30 05:22 51.80937 55.43008 38158 ft 475 kts 301°
2026-04-30 05:22 51.84953 55.34527 38180 ft 474 kts 300°
2026-04-30 05:23 51.88921 55.25993 38180 ft 474 kts 300°
2026-04-30 05:23 51.92884 55.17510 38172 ft 475 kts 300°
2026-04-30 05:24 51.96874 55.08975 38174 ft 475 kts 300°
2026-04-30 05:24 52.00869 55.00404 38210 ft 476 kts 300°
2026-04-30 05:25 52.04859 54.91811 38183 ft 476 kts 300°
2026-04-30 05:25 52.08823 54.83254 38179 ft 477 kts 300°
2026-04-30 05:26 52.12823 54.74613 38171 ft 477 kts 300°
2026-04-30 05:26 52.16815 54.65962 38184 ft 477 kts 300°
2026-04-30 05:27 52.20776 54.57344 38171 ft 478 kts 299°
2026-04-30 05:27 52.24760 54.48648 38168 ft 477 kts 299°
2026-04-30 05:28 52.28719 54.39976 38186 ft 476 kts 299°
2026-04-30 05:28 52.32495 54.31168 38174 ft 468 kts 292°
2026-04-30 05:29 52.35436 54.21829 38194 ft 464 kts 289°
2026-04-30 05:29 52.38313 54.12372 38193 ft 463 kts 289°
2026-04-30 05:30 52.41208 54.02931 38194 ft 464 kts 289°
2026-04-30 05:30 52.44096 53.93554 38198 ft 464 kts 289°
2026-04-30 05:31 52.47001 53.84101 38197 ft 464 kts 289°
2026-04-30 05:31 52.49904 53.74615 38196 ft 465 kts 289°
2026-04-30 05:32 52.52799 53.65113 38196 ft 465 kts 289°
2026-04-30 05:32 52.55668 53.55663 38199 ft 464 kts 289°
2026-04-30 05:33 52.58539 53.46165 38201 ft 464 kts 289°
2026-04-30 05:33 52.61403 53.36651 38235 ft 464 kts 289°
2026-04-30 05:34 52.64261 53.27123 38208 ft 464 kts 289°
2026-04-30 05:34 52.67091 53.17653 38208 ft 463 kts 289°
2026-04-30 05:35 52.69931 53.08108 38202 ft 463 kts 289°
2026-04-30 05:35 52.72767 52.98545 38205 ft 463 kts 289°
2026-04-30 05:36 52.75570 52.89055 38236 ft 463 kts 289°
2026-04-30 05:36 52.78389 52.79469 38218 ft 464 kts 289°
2026-04-30 05:37 52.81200 52.69874 38215 ft 463 kts 289°
2026-04-30 05:37 52.84004 52.60263 38203 ft 464 kts 289°
2026-04-30 05:38 52.86783 52.50701 38213 ft 464 kts 289°
2026-04-30 05:38 52.89575 52.41053 38226 ft 465 kts 289°
2026-04-30 05:39 52.92370 52.31353 38218 ft 466 kts 289°
2026-04-30 05:39 52.95157 52.21643 38212 ft 467 kts 289°
2026-04-30 05:40 52.97925 52.11960 38209 ft 467 kts 289°
2026-04-30 05:40 53.00708 52.02191 38214 ft 467 kts 289°
2026-04-30 05:41 53.03476 51.92425 38211 ft 467 kts 288°
2026-04-30 05:41 53.06237 51.82640 38218 ft 467 kts 288°
2026-04-30 05:42 53.08973 51.72902 38211 ft 467 kts 288°
2026-04-30 05:42 53.11718 51.63094 38215 ft 467 kts 288°
2026-04-30 05:43 53.14449 51.53296 38205 ft 466 kts 288°
2026-04-30 05:43 53.17158 51.43536 38232 ft 467 kts 288°
2026-04-30 05:44 53.19882 51.33673 38221 ft 468 kts 288°
2026-04-30 05:44 53.22597 51.23785 38215 ft 469 kts 288°
2026-04-30 05:45 53.25309 51.13861 38195 ft 470 kts 288°
2026-04-30 05:45 53.28001 51.03972 38215 ft 470 kts 288°
2026-04-30 05:46 53.30711 50.93975 38216 ft 472 kts 288°
2026-04-30 05:46 53.33412 50.83968 38216 ft 472 kts 288°
2026-04-30 05:47 53.36111 50.73924 38206 ft 473 kts 288°
2026-04-30 05:47 53.38786 50.63927 38206 ft 473 kts 288°
2026-04-30 05:48 53.41469 50.53854 38244 ft 473 kts 288°
2026-04-30 05:48 53.44144 50.43766 38211 ft 473 kts 288°
2026-04-30 05:49 53.46796 50.33722 38209 ft 473 kts 288°
2026-04-30 05:49 53.49447 50.23639 38213 ft 472 kts 288°
2026-04-30 05:50 53.52464 50.13771 38202 ft 479 kts 297°
2026-04-30 05:50 53.56220 50.04460 38225 ft 481 kts 299°
2026-04-30 05:51 53.59971 49.95227 38211 ft 480 kts 298°
2026-04-30 05:51 53.63701 49.85887 38200 ft 480 kts 298°
2026-04-30 05:52 53.67400 49.76536 38201 ft 479 kts 298°
2026-04-30 05:52 53.71091 49.67166 38228 ft 479 kts 298°
2026-04-30 05:53 53.74759 49.57829 38203 ft 479 kts 298°
2026-04-30 05:53 53.78441 49.48424 38199 ft 479 kts 298°
2026-04-30 05:54 53.82101 49.39004 38192 ft 479 kts 298°
2026-04-30 05:54 53.85753 49.29558 38186 ft 479 kts 297°
2026-04-30 05:55 53.89377 49.20152 38184 ft 479 kts 298°
2026-04-30 05:55 53.93023 49.10664 38185 ft 479 kts 298°
2026-04-30 05:56 53.96660 49.01170 38185 ft 479 kts 298°
2026-04-30 05:56 54.00267 48.91744 38183 ft 479 kts 297°
2026-04-30 05:57 54.03895 48.82226 38205 ft 480 kts 298°
2026-04-30 05:57 54.07518 48.72683 38188 ft 479 kts 298°
2026-04-30 05:58 54.11132 48.63128 38178 ft 479 kts 298°
2026-04-30 05:58 54.14705 48.53642 38182 ft 478 kts 297°
2026-04-30 05:59 54.18289 48.44089 38182 ft 477 kts 297°
2026-04-30 05:59 54.21867 48.34514 38187 ft 477 kts 298°
2026-04-30 06:00 54.25431 48.24948 38186 ft 477 kts 297°
2026-04-30 06:00 54.28894 48.15373 38190 ft 475 kts 296°
2026-04-30 06:01 54.32261 48.05626 38187 ft 475 kts 296°
2026-04-30 06:01 54.35624 47.95847 38191 ft 476 kts 296°
2026-04-30 06:02 54.38969 47.86144 38180 ft 476 kts 296°
2026-04-30 06:02 54.42340 47.76355 38174 ft 475 kts 296°
2026-04-30 06:03 54.45696 47.66572 38170 ft 474 kts 296°
2026-04-30 06:03 54.49039 47.56784 38170 ft 474 kts 296°
2026-04-30 06:04 54.52344 47.47069 38176 ft 473 kts 296°
2026-04-30 06:05 54.57319 47.32367 38152 ft 473 kts 296°
2026-04-30 06:05 54.60069 47.24202 38168 ft 473 kts 296°
2026-04-30 06:06 54.63907 47.12763 38181 ft 473 kts 296°
2026-04-30 06:06 54.66668 47.04502 38170 ft 474 kts 296°
2026-04-30 06:07 54.69915 46.94664 38169 ft 474 kts 295°
2026-04-30 06:07 54.73144 46.84709 38168 ft 474 kts 295°
2026-04-30 06:08 54.76366 46.74748 38163 ft 474 kts 295°
2026-04-30 06:08 54.79568 46.64836 38186 ft 474 kts 295°
2026-04-30 06:09 54.83024 46.55066 38166 ft 478 kts 303°
2026-04-30 06:09 54.87160 46.45965 38168 ft 480 kts 305°
2026-04-30 06:10 54.91334 46.36904 38169 ft 480 kts 304°
2026-04-30 06:10 54.95453 46.27843 38164 ft 480 kts 304°
2026-04-30 06:11 54.99575 46.18677 38178 ft 481 kts 304°
2026-04-30 06:11 55.03697 46.09462 38164 ft 481 kts 304°
2026-04-30 06:12 55.07814 46.00228 38167 ft 481 kts 304°
2026-04-30 06:12 55.11892 45.91050 38164 ft 481 kts 304°
2026-04-30 06:13 55.15986 45.81799 38165 ft 482 kts 304°
2026-04-30 06:13 55.20083 45.72510 38165 ft 482 kts 304°
2026-04-30 06:14 55.24169 45.63210 38162 ft 482 kts 304°
2026-04-30 06:14 55.28254 45.53876 38161 ft 482 kts 304°
2026-04-30 06:15 55.32301 45.44595 38180 ft 482 kts 304°
2026-04-30 06:15 55.36369 45.35227 38168 ft 482 kts 304°
2026-04-30 06:16 55.40428 45.25847 38165 ft 482 kts 304°
2026-04-30 06:16 55.44484 45.16437 38167 ft 482 kts 304°
2026-04-30 06:17 55.48507 45.07067 38162 ft 482 kts 304°
2026-04-30 06:17 55.52555 44.97606 38176 ft 483 kts 304°
2026-04-30 06:18 55.55993 44.87544 38158 ft 475 kts 287°
2026-04-30 06:18 55.57341 44.76327 38173 ft 468 kts 270°
2026-04-30 06:19 55.57566 44.64806 38175 ft 469 kts 270°
2026-04-30 06:19 55.57786 44.53274 38169 ft 470 kts 270°
2026-04-30 06:20 55.58049 44.41700 38181 ft 472 kts 270°
2026-04-30 06:20 55.58320 44.30173 38176 ft 473 kts 270°
2026-04-30 06:21 55.58583 44.18550 38169 ft 474 kts 270°
2026-04-30 06:21 55.58832 44.06903 38181 ft 474 kts 270°
2026-04-30 06:22 55.59072 43.95246 38175 ft 474 kts 270°
2026-04-30 06:22 55.59432 43.83673 38166 ft 475 kts 277°
2026-04-30 06:23 55.61273 43.72439 38200 ft 478 kts 292°
2026-04-30 06:23 55.64485 43.62093 38182 ft 480 kts 299°
2026-04-30 06:24 55.67901 43.51926 38186 ft 480 kts 298°
2026-04-30 06:24 55.71231 43.41747 38184 ft 480 kts 298°
2026-04-30 06:25 55.74548 43.31451 38186 ft 480 kts 298°
2026-04-30 06:25 55.77777 43.21072 38184 ft 480 kts 292°
2026-04-30 06:26 55.79821 43.09842 38194 ft 477 kts 280°
2026-04-30 06:26 55.80628 42.98168 38194 ft 476 kts 274°
2026-04-30 06:27 55.81221 42.86513 38188 ft 476 kts 274°
2026-04-30 06:27 55.81841 42.74760 38193 ft 477 kts 274°
2026-04-30 06:28 55.82480 42.63027 38193 ft 477 kts 274°
2026-04-30 06:28 55.83117 42.51289 38191 ft 477 kts 274°
2026-04-30 06:29 55.83742 42.39524 38191 ft 477 kts 274°
2026-04-30 06:29 55.84351 42.27846 38196 ft 477 kts 274°
2026-04-30 06:30 55.84952 42.16075 38191 ft 477 kts 274°
2026-04-30 06:30 55.85540 42.04326 38192 ft 477 kts 274°
2026-04-30 06:31 55.86116 41.92633 38211 ft 477 kts 274°
2026-04-30 06:31 55.86680 41.80863 38201 ft 477 kts 273°
2026-04-30 06:32 55.86613 41.69062 38207 ft 476 kts 266°
2026-04-30 06:32 55.86207 41.57369 38196 ft 468 kts 266°
2026-04-30 06:33 55.85819 41.45950 38196 ft 462 kts 266°
2026-04-30 06:33 55.85447 41.34541 38203 ft 461 kts 266°
2026-04-30 06:34 55.85074 41.23152 38207 ft 460 kts 266°
2026-04-30 06:34 55.84693 41.11851 38215 ft 460 kts 266°
2026-04-30 06:35 55.84298 41.00469 38217 ft 462 kts 266°
2026-04-30 06:35 55.83890 40.89046 38215 ft 464 kts 266°
2026-04-30 06:36 55.83470 40.77571 38216 ft 465 kts 266°
2026-04-30 06:36 55.83041 40.66071 38213 ft 466 kts 266°
2026-04-30 06:37 55.82594 40.54660 38217 ft 465 kts 266°
2026-04-30 06:37 55.82121 40.43179 38209 ft 465 kts 265°
2026-04-30 06:38 55.81640 40.31729 38218 ft 464 kts 266°
2026-04-30 06:38 55.81153 40.20322 38216 ft 463 kts 265°
2026-04-30 06:39 55.80656 40.08907 38220 ft 463 kts 265°
2026-04-30 06:39 55.80147 39.97490 38215 ft 463 kts 265°
2026-04-30 06:40 55.79633 39.86135 38044 ft 462 kts 265°
2026-04-30 06:40 55.79371 39.80476 37573 ft 457 kts 265°
2026-04-30 06:40 55.79052 39.74880 37098 ft 453 kts 264°
2026-04-30 06:40 55.78681 39.69335 36646 ft 449 kts 263°
2026-04-30 06:41 55.78301 39.63869 36270 ft 443 kts 263°
2026-04-30 06:41 55.77927 39.58454 35867 ft 438 kts 263°
2026-04-30 06:41 55.77565 39.53088 35425 ft 435 kts 263°
2026-04-30 06:41 55.77214 39.47828 34982 ft 432 kts 263°
2026-04-30 06:42 55.76860 39.42545 34596 ft 428 kts 263°
2026-04-30 06:42 55.76505 39.37318 34228 ft 423 kts 263°
2026-04-30 06:42 55.76146 39.32161 33776 ft 419 kts 263°
2026-04-30 06:42 55.75786 39.27053 33340 ft 414 kts 263°
2026-04-30 06:43 55.75427 39.22000 32938 ft 409 kts 263°
2026-04-30 06:43 55.75072 39.17022 32538 ft 404 kts 263°
2026-04-30 06:43 55.74725 39.12158 32132 ft 399 kts 263°
2026-04-30 06:43 55.74377 39.07304 31747 ft 395 kts 263°
2026-04-30 06:44 55.74031 39.02491 31352 ft 390 kts 263°
2026-04-30 06:44 55.73687 38.97748 30978 ft 386 kts 263°
2026-04-30 06:44 55.73367 38.93050 30601 ft 381 kts 266°
2026-04-30 06:44 55.73394 38.88373 30186 ft 377 kts 274°
2026-04-30 06:45 55.73665 38.83767 29704 ft 373 kts 276°
2026-04-30 06:45 55.73976 38.79212 29238 ft 370 kts 276°
2026-04-30 06:45 55.74259 38.74684 28689 ft 369 kts 276°
2026-04-30 06:45 55.74503 38.70215 28166 ft 368 kts 275°
2026-04-30 06:46 55.74726 38.65709 27740 ft 364 kts 275°
2026-04-30 06:46 55.74940 38.61254 27360 ft 360 kts 274°
2026-04-30 06:46 55.75385 38.56924 26853 ft 356 kts 290°
2026-04-30 06:46 55.76585 38.53083 26377 ft 357 kts 304°
2026-04-30 06:47 55.78052 38.49547 25970 ft 354 kts 304°
2026-04-30 06:47 55.79493 38.46021 25595 ft 351 kts 303°
2026-04-30 06:47 55.80903 38.42502 25223 ft 348 kts 303°
2026-04-30 06:47 55.82293 38.39000 24837 ft 345 kts 303°
2026-04-30 06:48 55.83688 38.35560 24556 ft 340 kts 304°
2026-04-30 06:48 55.85121 38.32253 24277 ft 335 kts 306°
2026-04-30 06:48 55.86555 38.28998 23936 ft 332 kts 305°
2026-04-30 06:48 55.87976 38.25763 23495 ft 332 kts 307°
2026-04-30 06:49 55.89375 38.22563 23042 ft 331 kts 307°
2026-04-30 06:49 55.90781 38.19329 22611 ft 328 kts 307°
2026-04-30 06:49 55.92171 38.16119 22211 ft 326 kts 307°
2026-04-30 06:49 55.93555 38.12916 21812 ft 324 kts 307°
2026-04-30 06:50 55.94924 38.09739 21404 ft 322 kts 307°
2026-04-30 06:50 55.96285 38.06580 21010 ft 320 kts 307°
2026-04-30 06:50 55.97622 38.03470 20628 ft 318 kts 307°
2026-04-30 06:50 55.98965 38.00341 20231 ft 317 kts 307°
2026-04-30 06:51 56.00237 37.97173 19806 ft 312 kts 298°
2026-04-30 06:51 56.00900 37.93496 19255 ft 312 kts 280°
2026-04-30 06:51 56.01244 37.89643 18770 ft 315 kts 281°
2026-04-30 06:51 56.01633 37.85801 18403 ft 312 kts 282°
2026-04-30 06:52 56.02032 37.82000 18028 ft 308 kts 283°
2026-04-30 06:52 56.02759 37.78466 17436 ft 305 kts 306°
2026-04-30 06:52 56.04237 37.75775 16908 ft 304 kts 326°
2026-04-30 06:52 56.06087 37.74011 16559 ft 300 kts 336°
2026-04-30 06:53 56.07984 37.72494 16177 ft 298 kts 335°
2026-04-30 06:53 56.09840 37.70984 15768 ft 296 kts 335°
2026-04-30 06:53 56.11636 37.69264 15292 ft 292 kts 321°
2026-04-30 06:53 56.12899 37.66414 14752 ft 296 kts 296°
2026-04-30 06:54 56.13523 37.62929 14421 ft 288 kts 287°
2026-04-30 06:54 56.14422 37.59892 14154 ft 273 kts 318°
2026-04-30 06:54 56.16064 37.58423 13919 ft 264 kts 354°
2026-04-30 06:54 56.17826 37.58994 13660 ft 259 kts 27°
2026-04-30 06:55 56.19090 37.61214 13287 ft 260 kts 63°
2026-04-30 06:55 56.19359 37.64392 12884 ft 263 kts 101°
2026-04-30 06:55 56.18512 37.67254 12466 ft 265 kts 138°
2026-04-30 06:55 56.16885 37.68723 12043 ft 261 kts 167°
2026-04-30 06:56 56.15135 37.69536 11541 ft 261 kts 158°
2026-04-30 06:56 56.13532 37.71116 11125 ft 263 kts 143°
2026-04-30 06:56 56.12148 37.73115 11022 ft 253 kts 137°
2026-04-30 06:56 56.10883 37.75214 10909 ft 242 kts 137°
2026-04-30 06:57 56.09505 37.76805 10631 ft 232 kts 157°
2026-04-30 06:57 56.08130 37.78235 10203 ft 229 kts 131°
2026-04-30 06:57 56.07386 37.80675 9831 ft 221 kts 97°
2026-04-30 06:57 56.07338 37.83352 9554 ft 212 kts 85°
2026-04-30 06:58 56.07434 37.85977 9115 ft 212 kts 83°
2026-04-30 06:58 56.07540 37.88631 8667 ft 213 kts 83°
2026-04-30 06:58 56.07648 37.91266 8286 ft 212 kts 83°
2026-04-30 06:58 56.07759 37.93885 7948 ft 209 kts 83°
2026-04-30 06:59 56.07868 37.96437 7573 ft 208 kts 83°
2026-04-30 06:59 56.07978 37.99020 7222 ft 207 kts 83°
2026-04-30 06:59 56.08087 38.01579 6848 ft 206 kts 83°
2026-04-30 06:59 56.08196 38.04133 6472 ft 204 kts 84°
2026-04-30 07:00 56.07980 38.06592 6055 ft 203 kts 120°
2026-04-30 07:00 56.06904 38.08002 5811 ft 191 kts 169°
2026-04-30 07:00 56.05659 38.07661 5474 ft 178 kts 207°
2026-04-30 07:00 56.04615 38.06533 5123 ft 173 kts 224°
2026-04-30 07:01 56.03893 38.04876 4737 ft 166 kts 250°
2026-04-30 07:01 56.03690 38.02883 4279 ft 162 kts 269°
2026-04-30 07:01 56.03581 38.00899 3886 ft 163 kts 266°
2026-04-30 07:01 56.03454 37.98891 3521 ft 162 kts 266°
2026-04-30 07:02 56.03329 37.96876 3172 ft 159 kts 267°
2026-04-30 07:02 56.03209 37.94933 3105 ft 160 kts 266°
2026-04-30 07:02 56.03086 37.92933 3051 ft 162 kts 266°
2026-04-30 07:02 56.02964 37.90934 3005 ft 162 kts 266°
2026-04-30 07:03 56.02842 37.88960 2963 ft 161 kts 267°
2026-04-30 07:03 56.02720 37.86972 2920 ft 161 kts 266°
2026-04-30 07:03 56.02598 37.84969 2832 ft 164 kts 266°
2026-04-30 07:03 56.02471 37.82928 2809 ft 171 kts 267°
2026-04-30 07:04 56.02340 37.80825 2863 ft 165 kts 267°
2026-04-30 07:04 56.02215 37.78836 2771 ft 159 kts 267°
2026-04-30 07:04 56.02093 37.76869 2741 ft 160 kts 267°
2026-04-30 07:04 56.01969 37.74881 2694 ft 162 kts 267°
2026-04-30 07:05 56.01526 37.70953 2615 ft 162 kts 258°
2026-04-30 07:05 56.01235 37.69013 2575 ft 163 kts 258°
2026-04-30 07:05 56.01041 37.67712 2544 ft 164 kts 258°
2026-04-30 07:06 56.00748 37.65740 2515 ft 163 kts 258°
2026-04-30 07:06 56.00454 37.63771 2425 ft 165 kts 258°
2026-04-30 07:06 56.00160 37.61801 2300 ft 163 kts 259°
2026-04-30 07:06 55.99871 37.59861 2189 ft 160 kts 259°
2026-04-30 07:07 55.99586 37.57942 2081 ft 160 kts 259°
2026-04-30 07:07 55.99307 37.56066 2015 ft 150 kts 259°
2026-04-30 07:07 55.99050 37.54335 1987 ft 145 kts 259°
2026-04-30 07:07 55.98788 37.52580 1881 ft 146 kts 258°
2026-04-30 07:08 55.98511 37.50861 1555 ft 144 kts 258°
2026-04-30 07:08 55.98267 37.49160 1184 ft 137 kts 258°
2026-04-30 07:08 55.98031 37.47552 963 ft 133 kts 258°
2026-04-30 07:08 55.97801 37.45957 829 ft 133 kts 258°
2026-04-30 07:09 55.97565 37.44340 679 ft 136 kts 255°
2026-04-30 07:09 55.97330 37.42799 650 ft 115 kts 253°
2026-04-30 07:09 55.97159 37.41672 644 ft 73 kts 257°
2026-04-30 07:09 55.97043 37.41084 650 ft 35 kts 229°
2026-04-30 07:10 55.96943 37.40898 649 ft 14 kts 224°
2026-04-30 07:10 55.96904 37.40829 649 ft 2 kts 224°
2026-04-30 07:10 55.96895 37.40815 648 ft 1 kts 223°
2026-04-30 07:10 55.96885 37.40804 649 ft 5 kts 210°
2026-04-30 07:11 55.96842 37.40804 646 ft 6 kts 158°
2026-04-30 07:11 55.96827 37.40846 645 ft 4 kts 101°
2026-04-30 07:11 55.96836 37.40898 647 ft 5 kts 67°
2026-04-30 07:11 55.96849 37.40959 647 ft 6 kts 73°
2026-04-30 07:12 55.96837 37.41024 651 ft 6 kts 137°
2026-04-30 07:12 55.96796 37.41045 647 ft 6 kts 167°
2026-04-30 07:12 55.96751 37.41066 645 ft 4 kts 165°
2026-04-30 07:12 55.96747 37.41068 645 ft 1 kts 164°
2026-04-30 07:13 55.96717 37.41083 646 ft 2 kts 164°
2026-04-30 07:13 55.96701 37.41090 646 ft 2 kts 164°
2026-04-30 07:13 55.96686 37.41098 647 ft 2 kts 166°
2026-04-30 07:13 55.96656 37.41110 645 ft 6 kts 167°
2026-04-30 07:14 55.96624 37.41135 651 ft 5 kts 137°
2026-04-30 07:14 55.96632 37.41263 643 ft 0 kts 76°